Time,TemperatureF,DewpointF,PressureIn,WindDirection,WindDirectionDegrees,WindSpeedMPH,WindSpeedGustMPH,Humidity,HourlyPrecipIn,Conditions,Clouds,dailyrainin,SoftwareType,DateUTC
2013-08-29 00:01:00,67.5,59.3,29.97,SSE,151,2.3,0.0,75,0.00,SCT,,0.00,WeatherDisplay:10.37,2013-08-29 07:01:00,
2013-08-29 00:03:00,67.5,59.3,29.97,SSE,152,3.5,3.5,75,0.00,SCT,,0.00,WeatherDisplay:10.37,2013-08-29 07:03:00,
2013-08-29 00:04:00,67.5,59.3,29.97,SSE,148,3.5,3.5,75,0.00,SCT,,0.00,WeatherDisplay:10.37,2013-08-29 07:04:00,
2013-08-29 00:06:00,67.5,59.3,29.98,South,178,3.5,3.5,75,0.00,SCT,,0.00,WeatherDisplay:10.37,2013-08-29 07:06:00,
2013-08-29 00:07:00,67.4,59.2,29.97,ESE,120,4.0,4.0,75,0.00,SCT,,0.00,WeatherDisplay:10.37,2013-08-29 07:07:00,
2013-08-29 00:09:00,67.4,59.2,29.97,East,101,5.8,5.8,75,0.00,SCT,,0.00,WeatherDisplay:10.37,2013-08-29 07:09:00,
2013-08-29 00:12:00,67.1,58.9,29.97,NE,46,3.5,3.5,75,0.00,SCT,,0.00,WeatherDisplay:10.37,2013-08-29 07:12:00,
2013-08-29 00:14:00,67.0,58.8,29.97,SSE,150,7.0,7.0,75,0.00,SCT,,0.00,WeatherDisplay:10.37,2013-08-29 07:14:00,
2013-08-29 00:15:00,67.0,59.2,29.97,SE,146,6.9,6.9,76,0.00,SCT,,0.00,WeatherDisplay:10.37,2013-08-29 07:15:00,
2013-08-29 00:18:00,66.9,59.1,29.97,East,88,2.3,2.3,76,0.00,SCT,,0.00,WeatherDisplay:10.37,2013-08-29 07:18:00,
2013-08-29 00:19:00,66.9,59.1,29.97,ESE,109,3.5,3.5,76,0.00,SCT,,0.00,WeatherDisplay:10.37,2013-08-29 07:19:00,
2013-08-29 00:20:00,66.9,59.1,29.97,ESE,109,3.5,3.5,76,0.00,SCT,,0.00,WeatherDisplay:10.37,2013-08-29 07:20:00,
2013-08-29 00:25:00,66.6,59.2,29.98,ENE,64,0.0,0.0,77,0.00,SCT,,0.00,WeatherDisplay:10.37,2013-08-29 07:25:00,
2013-08-29 00:26:00,66.5,59.1,29.98,ENE,64,0.0,0.0,77,0.00,SCT,,0.00,WeatherDisplay:10.37,2013-08-29 07:26:00,
2013-08-29 00:27:00,66.5,59.1,29.98,ENE,64,0.0,0.0,77,0.00,SCT,,0.00,WeatherDisplay:10.37,2013-08-29 07:27:00,
2013-08-29 00:29:00,66.4,59.0,29.98,ENE,64,0.0,0.0,77,0.00,SCT,,0.00,WeatherDisplay:10.37,2013-08-29 07:29:00,
2013-08-29 00:30:00,66.5,59.1,29.98,SSE,163,4.6,4.6,77,0.00,SCT,,0.00,WeatherDisplay:10.37,2013-08-29 07:30:00,
2013-08-29 00:31:00,66.5,59.1,29.98,SSE,148,5.8,5.8,77,0.00,SCT,,0.00,WeatherDisplay:10.37,2013-08-29 07:31:00,
2013-08-29 00:33:00,66.5,59.1,29.98,ENE,65,3.5,3.5,77,0.00,SCT,,0.00,WeatherDisplay:10.37,2013-08-29 07:33:00,
2013-08-29 00:36:00,66.5,59.1,29.98,SE,127,3.5,3.5,77,0.00,SCT,,0.00,WeatherDisplay:10.37,2013-08-29 07:36:00,
2013-08-29 00:37:00,66.5,59.1,29.98,SE,134,3.5,3.5,77,0.00,SCT,,0.00,WeatherDisplay:10.37,2013-08-29 07:37:00,
2013-08-29 00:41:00,66.6,58.8,29.98,SSW,196,3.5,0.0,76,0.00,SCT,,0.00,WeatherDisplay:10.37,2013-08-29 07:41:00,
2013-08-29 00:42:00,66.6,58.8,29.98,SSW,210,1.0,1.0,76,0.00,SCT,,0.00,WeatherDisplay:10.37,2013-08-29 07:42:00,
2013-08-29 00:43:00,66.6,58.8,29.98,ESE,113,2.3,2.3,76,0.00,SCT,,0.00,WeatherDisplay:10.37,2013-08-29 07:43:00,
2013-08-29 00:44:00,66.7,58.9,29.98,South,171,2.3,2.3,76,0.00,SCT,,0.00,WeatherDisplay:10.37,2013-08-29 07:44:00,
2013-08-29 00:46:00,66.7,58.9,29.98,ESE,116,6.9,6.9,76,0.00,SCT,,0.00,WeatherDisplay:10.37,2013-08-29 07:46:00,
2013-08-29 00:47:00,66.7,58.9,29.98,ESE,116,6.9,6.9,76,0.00,SCT,,0.00,WeatherDisplay:10.37,2013-08-29 07:47:00,
2013-08-29 00:49:00,66.7,58.9,29.98,SE,131,4.0,4.0,76,0.00,SCT,,0.00,WeatherDisplay:10.37,2013-08-29 07:49:00,
2013-08-29 00:50:00,66.7,58.9,29.98,SE,137,1.0,7.0,76,0.00,SCT,,0.00,WeatherDisplay:10.37,2013-08-29 07:50:00,
2013-08-29 00:52:00,66.7,58.9,29.98,SE,141,1.2,1.2,76,0.00,SCT,,0.00,WeatherDisplay:10.37,2013-08-29 07:52:00,
2013-08-29 00:54:00,66.6,58.8,29.98,ESE,113,5.0,5.0,76,0.00,SCT,,0.00,WeatherDisplay:10.37,2013-08-29 07:54:00,
2013-08-29 00:56:00,66.6,58.8,29.98,SE,137,2.0,2.0,76,0.00,SCT,,0.00,WeatherDisplay:10.37,2013-08-29 07:56:00,
2013-08-29 00:57:00,66.6,58.8,29.98,SE,127,3.5,3.5,76,0.00,SCT,,0.00,WeatherDisplay:10.37,2013-08-29 07:57:00,
2013-08-29 01:00:00,66.5,59.1,29.98,SE,124,1.2,1.2,77,0.00,SCT,,0.00,WeatherDisplay:10.37,2013-08-29 08:00:00,
2013-08-29 01:01:00,66.5,59.1,29.98,SE,144,1.2,1.2,77,0.00,SCT,,0.00,WeatherDisplay:10.37,2013-08-29 08:01:00,
2013-08-29 01:02:00,66.5,58.7,29.98,SE,138,3.5,3.5,76,0.00,SCT,,0.00,WeatherDisplay:10.37,2013-08-29 08:02:00,
2013-08-29 01:03:00,66.5,58.7,29.98,SSE,154,3.5,3.5,76,0.00,SCT,,0.00,WeatherDisplay:10.37,2013-08-29 08:03:00,
2013-08-29 01:07:00,66.5,58.7,29.98,SE,140,3.5,3.5,76,0.00,SCT,,0.00,WeatherDisplay:10.37,2013-08-29 08:07:00,
2013-08-29 01:08:00,66.4,59.0,29.98,SE,140,3.5,3.5,77,0.00,SCT,,0.00,WeatherDisplay:10.37,2013-08-29 08:08:00,
2013-08-29 01:09:00,66.4,59.0,29.98,ESE,118,1.2,1.2,77,0.00,SCT,,0.00,WeatherDisplay:10.37,2013-08-29 08:09:00,
2013-08-29 01:11:00,66.3,58.9,29.99,ESE,118,1.2,0.0,77,0.00,SCT,,0.00,WeatherDisplay:10.37,2013-08-29 08:11:00,
2013-08-29 01:12:00,66.3,58.9,29.98,SE,128,3.5,3.5,77,0.00,SCT,,0.00,WeatherDisplay:10.37,2013-08-29 08:12:00,
2013-08-29 01:13:00,66.3,58.9,29.99,SE,128,3.5,3.5,77,0.00,SCT,,0.00,WeatherDisplay:10.37,2013-08-29 08:13:00,
2013-08-29 01:14:00,66.3,58.9,29.99,SE,128,1.2,1.2,77,0.00,SCT,,0.00,WeatherDisplay:10.37,2013-08-29 08:14:00,
2013-08-29 01:17:00,66.3,58.5,29.99,ESE,122,3.0,3.0,76,0.00,SCT,,0.00,WeatherDisplay:10.37,2013-08-29 08:17:00,
2013-08-29 01:18:00,66.3,58.5,29.98,ESE,117,3.5,3.5,76,0.00,SCT,,0.00,WeatherDisplay:10.37,2013-08-29 08:18:00,
2013-08-29 01:20:00,66.3,58.5,29.99,SE,140,3.5,3.5,76,0.00,SCT,,0.00,WeatherDisplay:10.37,2013-08-29 08:20:00,
2013-08-29 01:22:00,66.2,58.8,29.99,South,184,2.3,2.3,77,0.00,SCT,,0.00,WeatherDisplay:10.37,2013-08-29 08:22:00,
2013-08-29 01:23:00,66.1,58.3,29.99,SSE,167,2.3,2.3,76,0.00,SCT,,0.00,WeatherDisplay:10.37,2013-08-29 08:23:00,
2013-08-29 01:24:00,66.0,58.6,29.99,SSE,152,2.0,2.0,77,0.00,SCT,,0.00,WeatherDisplay:10.37,2013-08-29 08:24:00,
2013-08-29 01:25:00,65.9,58.5,29.99,SW,228,1.2,1.2,77,0.00,SCT,,0.00,WeatherDisplay:10.37,2013-08-29 08:25:00,
2013-08-29 01:27:00,66.0,58.6,29.99,WSW,237,2.3,2.3,77,0.00,SCT,,0.00,WeatherDisplay:10.37,2013-08-29 08:27:00,
2013-08-29 01:28:00,66.0,58.6,29.99,WSW,237,2.3,2.3,77,0.00,SCT,,0.00,WeatherDisplay:10.37,2013-08-29 08:28:00,
2013-08-29 01:29:00,66.0,58.6,29.99,SE,144,3.5,3.5,77,0.00,SCT,,0.00,WeatherDisplay:10.37,2013-08-29 08:29:00,
2013-08-29 01:30:00,65.9,58.5,29.99,SE,144,3.5,3.5,77,0.00,SCT,,0.00,WeatherDisplay:10.37,2013-08-29 08:30:00,
2013-08-29 01:33:00,65.8,58.7,29.99,SW,217,0.0,0.0,78,0.00,SCT,,0.00,WeatherDisplay:10.37,2013-08-29 08:33:00,
2013-08-29 01:34:00,65.8,58.7,29.99,South,180,0.0,0.8,78,0.00,SCT,,0.00,WeatherDisplay:10.37,2013-08-29 08:34:00,
2013-08-29 01:35:00,65.8,58.7,29.99,SE,134,3.5,3.5,78,0.00,SCT,,0.00,WeatherDisplay:10.37,2013-08-29 08:35:00,
2013-08-29 01:37:00,65.7,58.7,29.99,SE,142,4.6,0.0,78,0.00,SCT,,0.00,WeatherDisplay:10.37,2013-08-29 08:37:00,
2013-08-29 01:38:00,65.7,58.7,29.99,SE,142,1.2,1.2,78,0.00,SCT,,0.00,WeatherDisplay:10.37,2013-08-29 08:38:00,
2013-08-29 01:40:00,65.7,58.7,29.99,SE,142,1.2,0.0,78,0.00,SCT,,0.00,WeatherDisplay:10.37,2013-08-29 08:40:00,
2013-08-29 01:41:00,65.7,58.7,29.99,SE,142,1.2,0.0,78,0.00,SCT,,0.00,WeatherDisplay:10.37,2013-08-29 08:41:00,
2013-08-29 01:42:00,65.7,58.7,29.99,WSW,246,2.3,2.3,78,0.00,SCT,,0.00,WeatherDisplay:10.37,2013-08-29 08:42:00,
2013-08-29 01:43:00,65.7,58.7,29.99,ESE,111,5.8,5.8,78,0.00,SCT,,0.00,WeatherDisplay:10.37,2013-08-29 08:43:00,
2013-08-29 01:46:00,65.7,58.3,29.99,ESE,106,1.2,0.0,77,0.00,SCT,,0.00,WeatherDisplay:10.37,2013-08-29 08:46:00,
2013-08-29 01:47:00,65.7,58.7,29.99,ESE,106,0.0,0.0,78,0.00,SCT,,0.00,WeatherDisplay:10.37,2013-08-29 08:47:00,
2013-08-29 01:48:00,65.7,58.7,29.99,ESE,106,1.0,0.0,78,0.00,SCT,,0.00,WeatherDisplay:10.37,2013-08-29 08:48:00,
2013-08-29 01:49:00,65.8,58.4,29.99,SE,126,2.0,2.0,77,0.00,SCT,,0.00,WeatherDisplay:10.37,2013-08-29 08:49:00,
2013-08-29 01:52:00,65.8,58.7,29.99,East,90,4.6,4.6,78,0.00,SCT,,0.00,WeatherDisplay:10.37,2013-08-29 08:52:00,
2013-08-29 01:53:00,65.8,58.7,29.99,ENE,76,4.6,4.6,78,0.00,SCT,,0.00,WeatherDisplay:10.37,2013-08-29 08:53:00,
2013-08-29 01:54:00,65.8,58.7,29.99,ENE,76,4.6,4.6,78,0.00,SCT,,0.00,WeatherDisplay:10.37,2013-08-29 08:54:00,
2013-08-29 01:55:00,65.8,58.4,29.99,South,186,3.5,3.5,77,0.00,SCT,,0.00,WeatherDisplay:10.37,2013-08-29 08:55:00,
2013-08-29 01:57:00,65.7,58.7,29.99,SW,216,1.2,1.2,78,0.00,SCT,,0.00,WeatherDisplay:10.37,2013-08-29 08:57:00,
2013-08-29 01:58:00,65.7,58.3,29.99,SW,219,1.2,1.2,77,0.00,SCT,,0.00,WeatherDisplay:10.37,2013-08-29 08:58:00,
2013-08-29 01:59:00,65.7,58.3,29.99,SW,219,1.2,0.0,77,0.00,SCT,,0.00,WeatherDisplay:10.37,2013-08-29 08:59:00,
2013-08-29 02:00:00,65.5,58.5,29.99,SW,220,1.0,0.0,78,0.00,SCT,,0.00,WeatherDisplay:10.37,2013-08-29 09:00:00,
2013-08-29 02:04:00,65.4,58.4,29.99,SW,235,2.3,2.3,78,0.00,SCT,,0.00,WeatherDisplay:10.37,2013-08-29 09:04:00,
2013-08-29 02:05:00,65.4,58.4,29.99,SW,235,2.3,2.3,78,0.00,SCT,,0.00,WeatherDisplay:10.37,2013-08-29 09:05:00,
2013-08-29 02:06:00,65.4,58.4,29.99,SW,235,2.3,0.0,78,0.00,SCT,,0.00,WeatherDisplay:10.37,2013-08-29 09:06:00,
2013-08-29 02:09:00,65.2,58.2,29.99,ENE,68,1.2,1.2,78,0.00,SCT,,0.00,WeatherDisplay:10.37,2013-08-29 09:09:00,
2013-08-29 02:10:00,65.2,58.2,29.99,ENE,68,1.2,1.2,78,0.00,SCT,,0.00,WeatherDisplay:10.37,2013-08-29 09:10:00,
2013-08-29 02:11:00,65.2,58.2,29.99,ENE,68,1.2,0.0,78,0.00,SCT,,0.00,WeatherDisplay:10.37,2013-08-29 09:11:00,
2013-08-29 02:12:00,65.2,58.2,29.99,ENE,68,0.0,0.0,78,0.00,SCT,,0.00,WeatherDisplay:10.37,2013-08-29 09:12:00,
2013-08-29 02:13:00,65.2,58.2,29.99,ENE,68,0.0,0.0,78,0.00,SCT,,0.00,WeatherDisplay:10.37,2013-08-29 09:13:00,
2013-08-29 02:14:00,65.3,58.3,29.98,ENE,68,0.0,0.0,78,0.00,SCT,,0.00,WeatherDisplay:10.37,2013-08-29 09:14:00,
2013-08-29 02:15:00,65.3,58.3,29.99,ENE,68,0.0,0.0,78,0.00,SCT,,0.00,WeatherDisplay:10.37,2013-08-29 09:15:00,
2013-08-29 02:16:00,65.3,58.3,29.99,ENE,68,1.2,1.2,78,0.00,SCT,,0.00,WeatherDisplay:10.37,2013-08-29 09:16:00,
2013-08-29 02:18:00,65.3,58.3,29.99,East,95,1.2,1.2,78,0.00,SCT,,0.00,WeatherDisplay:10.37,2013-08-29 09:18:00,
2013-08-29 02:19:00,65.2,58.2,29.99,East,96,2.3,0.0,78,0.00,SCT,,0.00,WeatherDisplay:10.37,2013-08-29 09:19:00,
2013-08-29 02:20:00,65.3,58.3,29.99,East,96,1.2,0.0,78,0.00,SCT,,0.00,WeatherDisplay:10.37,2013-08-29 09:20:00,
2013-08-29 02:21:00,65.2,58.2,29.99,East,96,1.2,0.0,78,0.00,SCT,,0.00,WeatherDisplay:10.37,2013-08-29 09:21:00,
2013-08-29 02:23:00,65.2,58.2,29.99,ESE,122,3.5,3.5,78,0.00,SCT,,0.00,WeatherDisplay:10.37,2013-08-29 09:23:00,
2013-08-29 02:24:00,65.2,58.2,29.99,ESE,122,2.3,2.3,78,0.00,SCT,,0.00,WeatherDisplay:10.37,2013-08-29 09:24:00,
2013-08-29 02:25:00,65.2,58.2,29.99,ESE,122,1.2,0.0,78,0.00,SCT,,0.00,WeatherDisplay:10.37,2013-08-29 09:25:00,
2013-08-29 02:26:00,65.2,58.2,29.99,SSE,157,2.0,2.0,78,0.00,SCT,,0.00,WeatherDisplay:10.37,2013-08-29 09:26:00,
2013-08-29 02:28:00,65.2,58.2,29.99,ESE,120,2.3,2.3,78,0.00,SCT,,0.00,WeatherDisplay:10.37,2013-08-29 09:28:00,
2013-08-29 02:29:00,65.2,58.2,29.99,SE,133,2.3,2.3,78,0.00,SCT,,0.00,WeatherDisplay:10.37,2013-08-29 09:29:00,
2013-08-29 02:30:00,65.2,58.2,29.99,SE,133,2.3,2.3,78,0.00,SCT,,0.00,WeatherDisplay:10.37,2013-08-29 09:30:00,
2013-08-29 02:31:00,65.2,58.2,29.99,South,188,2.3,2.3,78,0.00,SCT,,0.00,WeatherDisplay:10.37,2013-08-29 09:31:00,
2013-08-29 02:34:00,65.1,58.1,29.99,ESE,106,3.5,3.5,78,0.00,SCT,,0.00,WeatherDisplay:10.37,2013-08-29 09:34:00,
2013-08-29 02:35:00,65.1,58.1,29.99,ESE,111,3.5,3.5,78,0.00,SCT,,0.00,WeatherDisplay:10.37,2013-08-29 09:35:00,
2013-08-29 02:36:00,65.1,58.1,29.99,SSE,155,2.3,2.3,78,0.00,SCT,,0.00,WeatherDisplay:10.37,2013-08-29 09:36:00,
2013-08-29 02:37:00,65.1,58.1,29.99,SSE,160,2.3,2.3,78,0.00,SCT,,0.00,WeatherDisplay:10.37,2013-08-29 09:37:00,
2013-08-29 02:40:00,65.0,58.0,29.99,SE,143,1.2,1.2,78,0.00,SCT,,0.00,WeatherDisplay:10.37,2013-08-29 09:40:00,
2013-08-29 02:42:00,65.0,58.0,29.99,SE,134,2.3,2.3,78,0.00,SCT,,0.00,WeatherDisplay:10.37,2013-08-29 09:42:00,
2013-08-29 02:43:00,65.0,58.0,29.99,SE,132,1.2,1.2,78,0.00,SCT,,0.00,WeatherDisplay:10.37,2013-08-29 09:43:00,
2013-08-29 02:46:00,64.9,57.9,29.99,South,169,3.5,3.5,78,0.00,SCT,,0.00,WeatherDisplay:10.37,2013-08-29 09:46:00,
2013-08-29 02:47:00,64.9,57.9,29.99,SSW,199,3.5,3.5,78,0.00,SCT,,0.00,WeatherDisplay:10.37,2013-08-29 09:47:00,
2013-08-29 02:48:00,64.9,57.9,29.99,ESE,123,2.3,2.3,78,0.00,SCT,,0.00,WeatherDisplay:10.37,2013-08-29 09:48:00,
2013-08-29 02:51:00,64.9,57.9,29.99,SE,132,2.3,2.3,78,0.00,SCT,,0.00,WeatherDisplay:10.37,2013-08-29 09:51:00,
2013-08-29 02:52:00,64.9,57.9,29.99,ESE,116,2.3,2.3,78,0.00,SCT,,0.00,WeatherDisplay:10.37,2013-08-29 09:52:00,
2013-08-29 02:53:00,64.9,57.9,29.99,ESE,116,3.5,3.5,78,0.00,SCT,,0.00,WeatherDisplay:10.37,2013-08-29 09:53:00,
2013-08-29 02:55:00,64.9,57.9,29.99,SE,132,3.5,3.5,78,0.00,SCT,,0.00,WeatherDisplay:10.37,2013-08-29 09:55:00,
2013-08-29 02:56:00,64.9,57.9,29.99,ENE,76,3.5,3.5,78,0.00,SCT,,0.00,WeatherDisplay:10.37,2013-08-29 09:56:00,
2013-08-29 02:57:00,64.9,57.9,29.99,SSE,162,3.5,3.5,78,0.00,SCT,,0.00,WeatherDisplay:10.37,2013-08-29 09:57:00,
2013-08-29 02:58:00,64.9,57.9,29.99,SSE,162,3.5,3.5,78,0.00,SCT,,0.00,WeatherDisplay:10.37,2013-08-29 09:58:00,
2013-08-29 03:01:00,64.9,57.9,29.99,SSE,159,4.6,4.6,78,0.00,SCT,,0.00,WeatherDisplay:10.37,2013-08-29 10:01:00,
2013-08-29 03:02:00,64.9,57.9,29.99,SSE,159,2.3,2.3,78,0.00,SCT,,0.00,WeatherDisplay:10.37,2013-08-29 10:02:00,
2013-08-29 03:03:00,64.8,57.8,29.99,ESE,105,1.2,1.2,78,0.00,SCT,,0.00,WeatherDisplay:10.37,2013-08-29 10:03:00,
2013-08-29 03:07:00,64.7,57.7,29.99,ESE,114,3.0,3.0,78,0.00,SCT,,0.00,WeatherDisplay:10.37,2013-08-29 10:07:00,
2013-08-29 03:09:00,64.7,57.7,29.99,East,100,3.5,3.5,78,0.00,SCT,,0.00,WeatherDisplay:10.37,2013-08-29 10:09:00,
2013-08-29 03:12:00,64.6,57.6,29.99,SE,141,0.0,0.0,78,0.00,SCT,,0.00,WeatherDisplay:10.37,2013-08-29 10:12:00,
2013-08-29 03:13:00,64.6,57.6,29.99,SE,140,0.0,0.0,78,0.00,SCT,,0.00,WeatherDisplay:10.37,2013-08-29 10:13:00,
2013-08-29 03:14:00,64.6,57.9,29.99,SE,140,0.0,0.0,79,0.00,SCT,,0.00,WeatherDisplay:10.37,2013-08-29 10:14:00,
2013-08-29 03:15:00,64.6,57.9,29.99,ESE,113,0.0,0.0,79,0.00,SCT,,0.00,WeatherDisplay:10.37,2013-08-29 10:15:00,
2013-08-29 03:17:00,64.6,57.6,29.99,ESE,113,0.0,0.0,78,0.00,SCT,,0.00,WeatherDisplay:10.37,2013-08-29 10:17:00,
2013-08-29 03:18:00,64.6,57.9,29.99,SE,135,1.0,0.0,79,0.00,SCT,,0.00,WeatherDisplay:10.37,2013-08-29 10:18:00,
2013-08-29 03:20:00,64.6,57.9,29.99,ESE,122,3.0,3.0,79,0.00,SCT,,0.00,WeatherDisplay:10.37,2013-08-29 10:20:00,
2013-08-29 03:21:00,64.5,57.8,29.99,ESE,114,1.2,1.2,79,0.00,SCT,,0.00,WeatherDisplay:10.37,2013-08-29 10:21:00,
2013-08-29 03:23:00,64.6,57.9,30.00,ESE,114,3.5,3.5,79,0.00,SCT,,0.00,WeatherDisplay:10.37,2013-08-29 10:23:00,
2013-08-29 03:24:00,64.6,57.9,30.00,ESE,114,3.5,3.5,79,0.00,SCT,,0.00,WeatherDisplay:10.37,2013-08-29 10:24:00,
2013-08-29 03:25:00,64.6,57.6,30.00,SE,141,3.5,3.5,78,0.00,SCT,,0.00,WeatherDisplay:10.37,2013-08-29 10:25:00,
2013-08-29 03:27:00,64.5,57.5,29.99,SE,133,2.3,2.3,78,0.00,SCT,,0.00,WeatherDisplay:10.37,2013-08-29 10:27:00,
2013-08-29 03:28:00,64.5,57.5,30.00,SE,136,1.2,1.2,78,0.00,SCT,,0.00,WeatherDisplay:10.37,2013-08-29 10:28:00,
2013-08-29 03:29:00,64.5,57.8,29.99,SE,135,1.2,1.2,79,0.00,SCT,,0.00,WeatherDisplay:10.37,2013-08-29 10:29:00,
2013-08-29 03:30:00,64.5,57.8,29.99,SE,130,0.0,2.0,79,0.00,SCT,,0.00,WeatherDisplay:10.37,2013-08-29 10:30:00,
2013-08-29 03:31:00,64.4,57.7,30.00,SE,135,1.2,1.2,79,0.00,SCT,,0.00,WeatherDisplay:10.37,2013-08-29 10:31:00,
2013-08-29 03:33:00,64.3,57.6,30.00,SE,140,3.5,3.5,79,0.00,SCT,,0.00,WeatherDisplay:10.37,2013-08-29 10:33:00,
2013-08-29 03:34:00,64.4,57.7,29.99,SE,140,3.5,0.0,79,0.00,SCT,,0.00,WeatherDisplay:10.37,2013-08-29 10:34:00,
2013-08-29 03:35:00,64.4,57.7,30.00,SE,140,0.0,0.0,79,0.00,SCT,,0.00,WeatherDisplay:10.37,2013-08-29 10:35:00,
2013-08-29 03:36:00,64.4,57.7,29.99,SE,140,0.0,0.0,79,0.00,SCT,,0.00,WeatherDisplay:10.37,2013-08-29 10:36:00,
2013-08-29 03:38:00,64.4,57.7,29.99,SW,215,3.5,0.0,79,0.00,SCT,,0.00,WeatherDisplay:10.37,2013-08-29 10:38:00,
2013-08-29 03:39:00,64.4,57.4,29.99,SSW,213,0.0,0.0,78,0.00,SCT,,0.00,WeatherDisplay:10.37,2013-08-29 10:39:00,
2013-08-29 03:40:00,64.4,57.7,29.99,South,183,1.0,0.0,79,0.00,SCT,,0.00,WeatherDisplay:10.37,2013-08-29 10:40:00,
2013-08-29 03:41:00,64.4,57.4,29.99,South,180,2.3,2.3,78,0.00,SCT,,0.00,WeatherDisplay:10.37,2013-08-29 10:41:00,
2013-08-29 03:43:00,64.3,57.3,30.00,NE,45,3.5,3.5,78,0.00,SCT,,0.00,WeatherDisplay:10.37,2013-08-29 10:43:00,
2013-08-29 03:44:00,64.3,57.3,30.00,NE,45,3.5,3.5,78,0.00,SCT,,0.00,WeatherDisplay:10.37,2013-08-29 10:44:00,
2013-08-29 03:45:00,64.3,57.3,30.00,SE,124,7.0,7.0,78,0.00,SCT,,0.00,WeatherDisplay:10.37,2013-08-29 10:45:00,
2013-08-29 03:46:00,64.3,57.3,29.99,SSW,207,6.9,6.9,78,0.00,SCT,,0.00,WeatherDisplay:10.37,2013-08-29 10:46:00,
2013-08-29 03:47:00,64.2,57.2,30.00,SSE,161,6.9,6.9,78,0.00,SCT,,0.00,WeatherDisplay:10.37,2013-08-29 10:47:00,
2013-08-29 03:49:00,64.2,57.2,30.00,WSW,255,2.3,2.3,78,0.00,SCT,,0.00,WeatherDisplay:10.37,2013-08-29 10:49:00,
2013-08-29 03:50:00,64.2,57.2,29.99,South,190,2.3,2.3,78,0.00,SCT,,0.00,WeatherDisplay:10.37,2013-08-29 10:50:00,
2013-08-29 03:51:00,64.2,57.2,29.99,ESE,104,2.3,2.3,78,0.00,SCT,,0.00,WeatherDisplay:10.37,2013-08-29 10:51:00,
2013-08-29 03:52:00,64.1,57.1,30.00,ESE,104,1.2,1.2,78,0.00,SCT,,0.00,WeatherDisplay:10.37,2013-08-29 10:52:00,
2013-08-29 03:53:00,64.1,57.1,29.99,ESE,104,1.2,0.0,78,0.00,SCT,,0.00,WeatherDisplay:10.37,2013-08-29 10:53:00,
2013-08-29 03:55:00,64.1,57.1,30.00,SSW,207,3.5,3.5,78,0.00,SCT,,0.00,WeatherDisplay:10.37,2013-08-29 10:55:00,
2013-08-29 03:56:00,64.1,57.1,29.99,SSW,208,3.5,3.5,78,0.00,SCT,,0.00,WeatherDisplay:10.37,2013-08-29 10:56:00,
2013-08-29 03:57:00,64.1,57.1,30.00,SSW,193,1.2,1.2,78,0.00,SCT,,0.00,WeatherDisplay:10.37,2013-08-29 10:57:00,
2013-08-29 03:58:00,64.1,57.1,30.00,SSE,164,1.2,1.2,78,0.00,SCT,,0.00,WeatherDisplay:10.37,2013-08-29 10:58:00,
2013-08-29 04:00:00,64.1,57.1,30.00,ESE,107,4.6,4.6,78,0.00,SCT,,0.00,WeatherDisplay:10.37,2013-08-29 11:00:00,
2013-08-29 04:01:00,64.0,57.0,30.00,East,99,4.6,4.6,78,0.00,SCT,,0.00,WeatherDisplay:10.37,2013-08-29 11:01:00,
2013-08-29 04:03:00,64.0,57.0,30.00,SSE,156,3.5,3.5,78,0.00,SCT,,0.00,WeatherDisplay:10.37,2013-08-29 11:03:00,
2013-08-29 04:04:00,64.0,57.0,30.00,SE,129,3.5,3.5,78,0.00,SCT,,0.00,WeatherDisplay:10.37,2013-08-29 11:04:00,
2013-08-29 04:05:00,64.0,57.0,30.00,ESE,109,4.0,4.0,78,0.00,SCT,,0.00,WeatherDisplay:10.37,2013-08-29 11:05:00,
2013-08-29 04:08:00,63.9,56.9,30.00,SE,128,5.8,5.8,78,0.00,SCT,,0.00,WeatherDisplay:10.37,2013-08-29 11:08:00,
2013-08-29 04:09:00,63.9,56.9,30.00,SW,232,5.8,5.8,78,0.00,SCT,,0.00,WeatherDisplay:10.37,2013-08-29 11:09:00,
2013-08-29 04:10:00,63.9,56.9,30.00,ESE,120,3.5,3.5,78,0.00,SCT,,0.00,WeatherDisplay:10.37,2013-08-29 11:10:00,
2013-08-29 04:11:00,63.8,56.8,30.00,ESE,108,2.3,2.3,78,0.00,SCT,,0.00,WeatherDisplay:10.37,2013-08-29 11:11:00,
2013-08-29 04:12:00,63.8,56.8,30.00,SE,132,2.3,2.3,78,0.00,SCT,,0.00,WeatherDisplay:10.37,2013-08-29 11:12:00,
2013-08-29 04:13:00,63.7,56.7,29.99,SSE,155,2.3,2.3,78,0.00,SCT,,0.00,WeatherDisplay:10.37,2013-08-29 11:13:00,
2013-08-29 04:14:00,63.7,56.7,30.00,SSE,155,1.2,1.2,78,0.00,SCT,,0.00,WeatherDisplay:10.37,2013-08-29 11:14:00,
2013-08-29 04:15:00,63.7,56.7,29.99,SSE,147,2.0,2.0,78,0.00,SCT,,0.00,WeatherDisplay:10.37,2013-08-29 11:15:00,
2013-08-29 04:18:00,63.7,56.7,30.00,SE,135,2.3,2.3,78,0.00,SCT,,0.00,WeatherDisplay:10.37,2013-08-29 11:18:00,
2013-08-29 04:19:00,63.7,56.7,30.00,SE,135,2.3,2.3,78,0.00,SCT,,0.00,WeatherDisplay:10.37,2013-08-29 11:19:00,
2013-08-29 04:20:00,63.7,56.7,30.00,SE,135,1.2,0.0,78,0.00,SCT,,0.00,WeatherDisplay:10.37,2013-08-29 11:20:00,
2013-08-29 04:22:00,63.7,56.7,30.00,SE,135,1.2,0.0,78,0.00,SCT,,0.00,WeatherDisplay:10.37,2013-08-29 11:22:00,
2013-08-29 04:24:00,63.8,56.8,30.00,SE,135,0.0,0.1,78,0.00,SCT,,0.00,WeatherDisplay:10.37,2013-08-29 11:24:00,
2013-08-29 04:25:00,63.8,56.8,30.00,SE,135,1.2,1.2,78,0.00,SCT,,0.00,WeatherDisplay:10.37,2013-08-29 11:25:00,
2013-08-29 04:27:00,63.9,57.3,30.00,SE,135,2.3,2.3,79,0.00,SCT,,0.00,WeatherDisplay:10.37,2013-08-29 11:27:00,
2013-08-29 04:30:00,63.9,57.3,30.00,SE,135,1.2,1.2,79,0.00,SCT,,0.00,WeatherDisplay:10.37,2013-08-29 11:30:00,
2013-08-29 04:31:00,63.9,57.3,30.00,SE,135,1.2,1.2,79,0.00,SCT,,0.00,WeatherDisplay:10.37,2013-08-29 11:31:00,
2013-08-29 04:32:00,63.8,57.2,30.00,ESE,120,2.0,2.0,79,0.00,SCT,,0.00,WeatherDisplay:10.37,2013-08-29 11:32:00,
2013-08-29 04:33:00,63.8,57.2,30.00,SSE,150,5.8,5.8,79,0.00,SCT,,0.00,WeatherDisplay:10.37,2013-08-29 11:33:00,
2013-08-29 04:35:00,63.7,57.1,30.00,ESE,106,2.3,2.3,79,0.00,SCT,,0.00,WeatherDisplay:10.37,2013-08-29 11:35:00,
2013-08-29 04:37:00,63.7,57.1,30.00,ESE,109,3.5,3.5,79,0.00,SCT,,0.00,WeatherDisplay:10.37,2013-08-29 11:37:00,
2013-08-29 04:39:00,63.7,57.1,30.00,SE,126,2.3,2.3,79,0.00,SCT,,0.00,WeatherDisplay:10.37,2013-08-29 11:39:00,
2013-08-29 04:40:00,63.6,57.0,30.00,SE,136,2.3,2.3,79,0.00,SCT,,0.00,WeatherDisplay:10.37,2013-08-29 11:40:00,
2013-08-29 04:41:00,63.6,57.0,30.00,SE,136,2.3,2.3,79,0.00,SCT,,0.00,WeatherDisplay:10.37,2013-08-29 11:41:00,
2013-08-29 04:42:00,63.6,57.0,30.00,ESE,123,2.3,0.0,79,0.00,SCT,,0.00,WeatherDisplay:10.37,2013-08-29 11:42:00,
2013-08-29 04:45:00,63.6,56.9,30.00,SE,132,0.0,3.0,79,0.00,SCT,,0.00,WeatherDisplay:10.37,2013-08-29 11:45:00,
2013-08-29 04:46:00,63.5,56.9,30.00,South,188,1.2,0.0,79,0.00,SCT,,0.00,WeatherDisplay:10.37,2013-08-29 11:46:00,
2013-08-29 04:50:00,63.5,56.9,30.00,ESE,117,3.5,0.0,79,0.00,SCT,,0.00,WeatherDisplay:10.37,2013-08-29 11:50:00,
2013-08-29 04:51:00,63.5,56.9,30.00,SW,225,0.0,0.0,79,0.00,SCT,,0.00,WeatherDisplay:10.37,2013-08-29 11:51:00,
2013-08-29 04:55:00,63.5,56.9,30.00,SSW,201,1.0,0.0,79,0.00,SCT,,0.00,WeatherDisplay:10.37,2013-08-29 11:55:00,
2013-08-29 04:56:00,63.5,56.9,30.00,SSW,201,0.0,0.0,79,0.00,SCT,,0.00,WeatherDisplay:10.37,2013-08-29 11:56:00,
2013-08-29 04:57:00,63.5,56.9,30.00,SSW,201,0.0,0.0,79,0.00,SCT,,0.00,WeatherDisplay:10.37,2013-08-29 11:57:00,
2013-08-29 04:58:00,63.5,56.9,30.00,SE,125,3.5,3.5,79,0.00,SCT,,0.00,WeatherDisplay:10.37,2013-08-29 11:58:00,
2013-08-29 05:00:00,63.4,56.8,30.00,South,174,2.3,2.3,79,0.00,SCT,,0.00,WeatherDisplay:10.37,2013-08-29 12:00:00,
2013-08-29 05:01:00,63.4,57.1,30.01,South,175,2.3,2.3,80,0.00,SCT,,0.00,WeatherDisplay:10.37,2013-08-29 12:01:00,
2013-08-29 05:02:00,63.4,57.1,30.00,South,183,1.2,1.2,80,0.00,SCT,,0.00,WeatherDisplay:10.37,2013-08-29 12:02:00,
2013-08-29 05:04:00,63.3,57.0,30.00,South,183,0.0,0.0,80,0.00,SCT,,0.00,WeatherDisplay:10.37,2013-08-29 12:04:00,
2013-08-29 05:07:00,63.3,56.7,30.01,South,183,1.2,1.2,79,0.00,SCT,,0.00,WeatherDisplay:10.37,2013-08-29 12:07:00,
2013-08-29 05:08:00,63.3,57.0,30.00,South,183,1.2,0.0,80,0.00,SCT,,0.00,WeatherDisplay:10.37,2013-08-29 12:08:00,
2013-08-29 05:10:00,63.3,57.0,30.00,ESE,111,1.2,1.2,80,0.00,SCT,,0.00,WeatherDisplay:10.37,2013-08-29 12:10:00,
2013-08-29 05:11:00,63.3,57.0,30.00,ESE,111,1.2,1.2,80,0.00,SCT,,0.00,WeatherDisplay:10.37,2013-08-29 12:11:00,
2013-08-29 05:12:00,63.3,57.0,30.00,SE,135,2.3,2.3,80,0.00,SCT,,0.00,WeatherDisplay:10.37,2013-08-29 12:12:00,
2013-08-29 05:13:00,63.3,57.0,30.00,ESE,109,2.3,2.3,80,0.00,SCT,,0.00,WeatherDisplay:10.37,2013-08-29 12:13:00,
2013-08-29 05:14:00,63.3,57.0,30.01,ESE,108,2.3,2.3,80,0.00,SCT,,0.00,WeatherDisplay:10.37,2013-08-29 12:14:00,
2013-08-29 05:16:00,63.3,57.0,30.00,ESE,108,1.2,0.0,80,0.00,SCT,,0.00,WeatherDisplay:10.37,2013-08-29 12:16:00,
2013-08-29 05:17:00,63.2,56.9,30.00,West,265,1.2,1.2,80,0.00,SCT,,0.00,WeatherDisplay:10.37,2013-08-29 12:17:00,
2013-08-29 05:18:00,63.2,56.9,30.01,WSW,245,1.2,1.2,80,0.00,SCT,,0.00,WeatherDisplay:10.37,2013-08-29 12:18:00,
2013-08-29 05:19:00,63.2,56.9,30.00,South,178,1.2,0.0,80,0.00,SCT,,0.00,WeatherDisplay:10.37,2013-08-29 12:19:00,
2013-08-29 05:20:00,63.1,56.8,30.01,South,175,1.2,0.0,80,0.00,SCT,,0.00,WeatherDisplay:10.37,2013-08-29 12:20:00,
2013-08-29 05:21:00,63.0,56.7,30.01,South,175,0.0,0.0,80,0.00,SCT,,0.00,WeatherDisplay:10.37,2013-08-29 12:21:00,
2013-08-29 05:23:00,63.0,56.7,30.01,South,175,1.2,0.0,80,0.00,SCT,,0.00,WeatherDisplay:10.37,2013-08-29 12:23:00,
2013-08-29 05:25:00,62.9,57.0,30.01,SE,145,1.2,0.0,81,0.00,SCT,,0.00,WeatherDisplay:10.37,2013-08-29 12:25:00,
2013-08-29 05:26:00,62.9,57.0,30.01,SE,145,1.2,0.0,81,0.00,SCT,,0.00,WeatherDisplay:10.37,2013-08-29 12:26:00,
2013-08-29 05:28:00,63.0,56.7,30.01,ENE,66,3.5,3.5,80,0.00,SCT,,0.00,WeatherDisplay:10.37,2013-08-29 12:28:00,
2013-08-29 05:30:00,63.0,56.7,30.01,East,82,1.2,1.2,80,0.00,SCT,,0.00,WeatherDisplay:10.37,2013-08-29 12:30:00,
2013-08-29 05:31:00,63.0,56.7,30.01,WSW,252,1.2,0.0,80,0.00,SCT,,0.00,WeatherDisplay:10.37,2013-08-29 12:31:00,
2013-08-29 05:32:00,63.0,56.7,30.01,WSW,255,0.0,0.0,80,0.00,SCT,,0.00,WeatherDisplay:10.37,2013-08-29 12:32:00,
2013-08-29 05:33:00,63.1,56.8,30.01,ESE,111,1.2,1.2,80,0.00,SCT,,0.00,WeatherDisplay:10.37,2013-08-29 12:33:00,
2013-08-29 05:34:00,63.1,56.8,30.01,ESE,111,1.2,1.2,80,0.00,SCT,,0.00,WeatherDisplay:10.37,2013-08-29 12:34:00,
2013-08-29 05:35:00,63.1,56.8,30.01,ESE,111,1.2,0.0,80,0.00,SCT,,0.00,WeatherDisplay:10.37,2013-08-29 12:35:00,
2013-08-29 05:36:00,63.1,56.8,30.01,ESE,111,0.0,0.0,80,0.00,SCT,,0.00,WeatherDisplay:10.37,2013-08-29 12:36:00,
2013-08-29 05:37:00,63.1,56.8,30.01,SSW,204,0.0,0.1,80,0.00,SCT,,0.00,WeatherDisplay:10.37,2013-08-29 12:37:00,
2013-08-29 05:39:00,63.2,56.9,30.01,ESE,111,1.2,0.0,80,0.00,SCT,,0.00,WeatherDisplay:10.37,2013-08-29 12:39:00,
2013-08-29 05:41:00,63.1,56.8,30.01,ESE,115,1.2,0.0,80,0.00,SCT,,0.00,WeatherDisplay:10.37,2013-08-29 12:41:00,
2013-08-29 05:42:00,63.1,56.8,30.01,ESE,115,0.0,0.0,80,0.00,SCT,,0.00,WeatherDisplay:10.37,2013-08-29 12:42:00,
2013-08-29 05:44:00,63.0,56.7,30.01,SW,230,1.0,0.0,80,0.00,SCT,,0.00,WeatherDisplay:10.37,2013-08-29 12:44:00,
2013-08-29 05:45:00,63.0,56.7,30.01,SW,221,0.0,0.5,80,0.00,SCT,,0.00,WeatherDisplay:10.37,2013-08-29 12:45:00,
2013-08-29 05:47:00,63.0,56.7,30.01,SE,146,2.3,2.3,80,0.00,SCT,,0.00,WeatherDisplay:10.37,2013-08-29 12:47:00,
2013-08-29 05:48:00,63.0,56.7,30.01,SSE,163,1.2,1.2,80,0.00,SCT,,0.00,WeatherDisplay:10.37,2013-08-29 12:48:00,
2013-08-29 05:49:00,63.1,56.8,30.01,South,170,1.2,0.0,80,0.00,SCT,,0.00,WeatherDisplay:10.37,2013-08-29 12:49:00,
2013-08-29 05:50:00,63.1,56.8,30.01,South,170,0.0,0.0,80,0.00,SCT,,0.00,WeatherDisplay:10.37,2013-08-29 12:50:00,
2013-08-29 05:51:00,63.1,56.8,30.01,South,170,1.0,0.0,80,0.00,SCT,,0.00,WeatherDisplay:10.37,2013-08-29 12:51:00,
2013-08-29 05:53:00,63.1,56.8,30.01,ESE,118,1.2,1.2,80,0.00,SCT,,0.00,WeatherDisplay:10.37,2013-08-29 12:53:00,
2013-08-29 05:54:00,63.1,56.5,30.01,ESE,120,1.2,1.2,79,0.00,SCT,,0.00,WeatherDisplay:10.37,2013-08-29 12:54:00,
2013-08-29 05:55:00,63.0,56.4,30.01,ESE,120,1.2,1.2,79,0.00,SCT,,0.00,WeatherDisplay:10.37,2013-08-29 12:55:00,
2013-08-29 05:56:00,63.0,56.7,30.01,ESE,120,2.3,2.3,80,0.00,SCT,,0.00,WeatherDisplay:10.37,2013-08-29 12:56:00,
2013-08-29 05:59:00,63.0,56.7,30.01,ESE,120,1.2,0.0,80,0.00,SCT,,0.00,WeatherDisplay:10.37,2013-08-29 12:59:00,
2013-08-29 06:00:00,63.1,56.5,30.01,ESE,118,3.0,3.0,79,0.00,SCT,,0.00,WeatherDisplay:10.37,2013-08-29 13:00:00,
2013-08-29 06:04:00,63.0,56.7,30.02,WSW,254,0.0,0.0,80,0.00,SCT,,0.00,WeatherDisplay:10.37,2013-08-29 13:04:00,
2013-08-29 06:05:00,63.0,56.8,30.02,South,179,0.0,3.0,80,0.00,SCT,,0.00,WeatherDisplay:10.37,2013-08-29 13:05:00,
2013-08-29 06:06:00,63.0,56.7,30.02,SSW,205,1.2,0.0,80,0.00,SCT,,0.00,WeatherDisplay:10.37,2013-08-29 13:06:00,
2013-08-29 06:07:00,62.9,56.6,30.02,SSW,205,0.0,0.0,80,0.00,SCT,,0.00,WeatherDisplay:10.37,2013-08-29 13:07:00,
2013-08-29 06:09:00,63.0,57.1,30.02,SE,131,2.3,2.3,81,0.00,SCT,,0.00,WeatherDisplay:10.37,2013-08-29 13:09:00,
2013-08-29 06:10:00,63.0,56.7,30.02,SE,131,2.3,0.0,80,0.00,SCT,,0.00,WeatherDisplay:10.37,2013-08-29 13:10:00,
2013-08-29 06:11:00,63.0,57.1,30.02,SE,131,0.0,0.0,81,0.00,SCT,,0.00,WeatherDisplay:10.37,2013-08-29 13:11:00,
2013-08-29 06:12:00,63.0,56.7,30.02,SE,131,0.0,0.0,80,0.00,SCT,,0.00,WeatherDisplay:10.37,2013-08-29 13:12:00,
2013-08-29 06:15:00,63.1,56.8,30.02,SSW,204,3.5,3.5,80,0.00,SCT,,0.00,WeatherDisplay:10.37,2013-08-29 13:15:00,
2013-08-29 06:16:00,63.1,56.8,30.02,SSW,204,0.0,0.0,80,0.00,SCT,,0.00,WeatherDisplay:10.37,2013-08-29 13:16:00,
2013-08-29 06:17:00,63.1,56.8,30.02,SE,142,1.0,0.0,80,0.00,SCT,,0.00,WeatherDisplay:10.37,2013-08-29 13:17:00,
2013-08-29 06:20:00,63.1,56.8,30.02,South,178,0.0,2.0,80,0.00,SCT,,0.00,WeatherDisplay:10.37,2013-08-29 13:20:00,
2013-08-29 06:21:00,63.1,57.2,30.02,ESE,114,1.2,0.0,81,0.00,SCT,,0.00,WeatherDisplay:10.37,2013-08-29 13:21:00,
2013-08-29 06:25:00,63.1,56.8,30.03,SW,225,0.0,0.0,80,0.00,SCT,,0.00,WeatherDisplay:10.37,2013-08-29 13:25:00,
2013-08-29 06:26:00,63.1,57.2,30.03,SW,225,0.0,0.0,81,0.00,SCT,,0.00,WeatherDisplay:10.37,2013-08-29 13:26:00,
2013-08-29 06:27:00,63.2,56.9,30.03,East,85,0.0,0.0,80,0.00,SCT,,0.00,WeatherDisplay:10.37,2013-08-29 13:27:00,
2013-08-29 06:29:00,63.1,56.8,30.03,East,84,0.0,0.0,80,0.00,SCT,,0.00,WeatherDisplay:10.37,2013-08-29 13:29:00,
2013-08-29 06:30:00,63.2,56.9,30.03,East,84,0.0,0.0,80,0.00,SCT,,0.00,WeatherDisplay:10.37,2013-08-29 13:30:00,
2013-08-29 06:32:00,63.2,56.9,30.03,East,84,0.0,0.0,80,0.00,SCT,,0.00,WeatherDisplay:10.37,2013-08-29 13:32:00,
2013-08-29 06:33:00,63.1,56.8,30.03,SE,132,0.0,0.0,80,0.00,SCT,,0.00,WeatherDisplay:10.37,2013-08-29 13:33:00,
2013-08-29 06:34:00,63.1,56.8,30.03,SW,214,3.5,3.5,80,0.00,SCT,,0.00,WeatherDisplay:10.37,2013-08-29 13:34:00,
2013-08-29 06:35:00,63.1,56.8,30.03,ESE,107,1.0,3.0,80,0.00,SCT,,0.00,WeatherDisplay:10.37,2013-08-29 13:35:00,
2013-08-29 06:37:00,63.1,56.8,30.03,SE,143,3.5,3.5,80,0.00,SCT,,0.00,WeatherDisplay:10.37,2013-08-29 13:37:00,
2013-08-29 06:39:00,63.1,56.8,30.03,SE,143,1.2,0.0,80,0.00,SCT,,0.00,WeatherDisplay:10.37,2013-08-29 13:39:00,
2013-08-29 06:40:00,63.1,56.8,30.03,ESE,122,0.0,3.0,80,0.00,SCT,,0.00,WeatherDisplay:10.37,2013-08-29 13:40:00,
2013-08-29 06:42:00,63.1,56.8,30.03,SE,143,0.0,0.0,80,0.00,SCT,,0.00,WeatherDisplay:10.37,2013-08-29 13:42:00,
2013-08-29 06:44:00,63.1,56.8,30.03,SE,143,0.0,0.0,80,0.00,SCT,,0.00,WeatherDisplay:10.37,2013-08-29 13:44:00,
2013-08-29 06:45:00,63.1,56.8,30.03,SE,143,0.0,0.0,80,0.00,SCT,,0.00,WeatherDisplay:10.37,2013-08-29 13:45:00,
2013-08-29 06:47:00,63.1,56.8,30.03,SE,143,1.2,1.2,80,0.00,SCT,,0.00,WeatherDisplay:10.37,2013-08-29 13:47:00,
2013-08-29 06:48:00,63.2,56.9,30.03,SE,143,2.3,2.3,80,0.00,SCT,,0.00,WeatherDisplay:10.37,2013-08-29 13:48:00,
2013-08-29 06:50:00,63.2,56.9,30.03,SE,143,0.0,2.0,80,0.00,SCT,,0.00,WeatherDisplay:10.37,2013-08-29 13:50:00,
2013-08-29 06:51:00,63.2,56.9,30.04,ESE,114,1.2,0.0,80,0.00,SCT,,0.00,WeatherDisplay:10.37,2013-08-29 13:51:00,
2013-08-29 06:52:00,63.2,56.6,30.03,East,97,0.0,0.0,79,0.00,SCT,,0.00,WeatherDisplay:10.37,2013-08-29 13:52:00,
2013-08-29 06:54:00,63.2,56.6,30.03,ESE,104,0.0,0.0,79,0.00,SCT,,0.00,WeatherDisplay:10.37,2013-08-29 13:54:00,
2013-08-29 06:55:00,63.2,56.6,30.03,ESE,104,2.3,2.3,79,0.00,SCT,,0.00,WeatherDisplay:10.37,2013-08-29 13:55:00,
2013-08-29 06:56:00,63.1,56.5,30.04,ESE,104,2.3,2.3,79,0.00,SCT,,0.00,WeatherDisplay:10.37,2013-08-29 13:56:00,
2013-08-29 06:57:00,63.1,56.5,30.04,ESE,104,0.0,0.0,79,0.00,SCT,,0.00,WeatherDisplay:10.37,2013-08-29 13:57:00,
2013-08-29 06:58:00,63.1,56.8,30.04,ESE,104,0.0,0.0,80,0.00,SCT,,0.00,WeatherDisplay:10.37,2013-08-29 13:58:00,
2013-08-29 07:00:00,63.1,56.8,30.04,ESE,104,0.0,0.3,80,0.00,SCT,,0.00,WeatherDisplay:10.37,2013-08-29 14:00:00,
2013-08-29 07:01:00,63.1,56.5,30.04,ESE,104,0.0,0.0,79,0.00,SCT,,0.00,WeatherDisplay:10.37,2013-08-29 14:01:00,
2013-08-29 07:02:00,63.1,56.5,30.04,ESE,104,0.0,0.0,79,0.00,SCT,,0.00,WeatherDisplay:10.37,2013-08-29 14:02:00,
2013-08-29 07:03:00,63.1,56.8,30.04,ESE,104,0.0,0.0,80,0.00,SCT,,0.00,WeatherDisplay:10.37,2013-08-29 14:03:00,
2013-08-29 07:04:00,63.1,56.5,30.04,ESE,104,0.0,0.0,79,0.00,SCT,,0.00,WeatherDisplay:10.37,2013-08-29 14:04:00,
2013-08-29 07:05:00,63.1,56.5,30.04,ESE,104,0.0,0.0,79,0.00,SCT,,0.00,WeatherDisplay:10.37,2013-08-29 14:05:00,
2013-08-29 07:06:00,63.1,56.5,30.04,ESE,104,0.0,0.0,79,0.00,SCT,,0.00,WeatherDisplay:10.37,2013-08-29 14:06:00,
2013-08-29 07:07:00,63.1,56.5,30.04,ESE,104,0.0,0.0,79,0.00,SCT,,0.00,WeatherDisplay:10.37,2013-08-29 14:07:00,
2013-08-29 07:08:00,63.0,56.7,30.05,ESE,104,1.2,0.0,80,0.00,SCT,,0.00,WeatherDisplay:10.37,2013-08-29 14:08:00,
2013-08-29 07:09:00,63.0,56.7,30.05,ESE,104,1.2,0.0,80,0.00,SCT,,0.00,WeatherDisplay:10.37,2013-08-29 14:09:00,
2013-08-29 07:10:00,63.1,56.8,30.04,ESE,104,0.0,0.0,80,0.00,SCT,,0.00,WeatherDisplay:10.37,2013-08-29 14:10:00,
2013-08-29 07:12:00,63.1,56.8,30.05,ESE,104,0.0,0.0,80,0.00,SCT,,0.00,WeatherDisplay:10.37,2013-08-29 14:12:00,
2013-08-29 07:14:00,63.2,56.9,30.05,ESE,104,0.0,0.0,80,0.00,SCT,,0.00,WeatherDisplay:10.37,2013-08-29 14:14:00,
2013-08-29 07:15:00,63.2,56.6,30.05,ESE,104,0.0,0.0,79,0.00,SCT,,0.00,WeatherDisplay:10.37,2013-08-29 14:15:00,
2013-08-29 07:16:00,63.2,56.6,30.05,ESE,104,0.0,0.0,79,0.00,SCT,,0.00,WeatherDisplay:10.37,2013-08-29 14:16:00,
2013-08-29 07:18:00,63.3,56.7,30.05,ESE,104,0.0,0.0,79,0.00,SCT,,0.00,WeatherDisplay:10.37,2013-08-29 14:18:00,
2013-08-29 07:19:00,63.3,56.7,30.05,ESE,104,0.0,0.0,79,0.00,SCT,,0.00,WeatherDisplay:10.37,2013-08-29 14:19:00,
2013-08-29 07:20:00,63.3,57.0,30.05,ESE,104,0.0,0.0,80,0.00,SCT,,0.00,WeatherDisplay:10.37,2013-08-29 14:20:00,
2013-08-29 07:21:00,63.3,57.0,30.05,ESE,104,0.0,0.0,80,0.00,SCT,,0.00,WeatherDisplay:10.37,2013-08-29 14:21:00,
2013-08-29 07:23:00,63.3,57.0,30.05,ESE,104,0.0,0.0,80,0.00,SCT,,0.00,WeatherDisplay:10.37,2013-08-29 14:23:00,
2013-08-29 07:24:00,63.3,57.0,30.05,ESE,104,0.0,0.0,80,0.00,SCT,,0.00,WeatherDisplay:10.37,2013-08-29 14:24:00,
2013-08-29 07:26:00,63.4,56.8,30.05,ESE,104,0.0,0.0,79,0.00,SCT,,0.00,WeatherDisplay:10.37,2013-08-29 14:26:00,
2013-08-29 07:27:00,63.4,57.1,30.05,SE,126,1.2,1.2,80,0.00,SCT,,0.00,WeatherDisplay:10.37,2013-08-29 14:27:00,
2013-08-29 07:29:00,63.4,56.8,30.05,SE,126,0.0,0.0,79,0.00,SCT,,0.00,WeatherDisplay:10.37,2013-08-29 14:29:00,
2013-08-29 07:31:00,63.5,57.2,30.05,SE,126,0.0,0.0,80,0.00,SCT,,0.00,WeatherDisplay:10.37,2013-08-29 14:31:00,
2013-08-29 07:33:00,63.6,57.3,30.05,SE,126,1.2,1.2,80,0.00,SCT,,0.00,WeatherDisplay:10.37,2013-08-29 14:33:00,
2013-08-29 07:35:00,63.6,57.3,30.05,SE,126,0.0,0.1,80,0.00,SCT,,0.00,WeatherDisplay:10.37,2013-08-29 14:35:00,
2013-08-29 07:37:00,63.7,57.4,30.05,SE,126,1.2,1.2,80,0.00,SCT,,0.00,WeatherDisplay:10.37,2013-08-29 14:37:00,
2013-08-29 07:39:00,63.9,57.6,30.05,SE,126,1.2,1.2,80,0.00,SCT,,0.00,WeatherDisplay:10.37,2013-08-29 14:39:00,
2013-08-29 07:40:00,63.9,57.6,30.05,SE,126,0.0,1.0,80,0.00,SCT,,0.00,WeatherDisplay:10.37,2013-08-29 14:40:00,
2013-08-29 07:43:00,64.3,58.0,30.05,SE,126,2.3,2.3,80,0.00,SCT,,0.00,WeatherDisplay:10.37,2013-08-29 14:43:00,
2013-08-29 07:44:00,64.4,58.1,30.05,SE,126,1.2,1.2,80,0.00,SCT,,0.00,WeatherDisplay:10.37,2013-08-29 14:44:00,
2013-08-29 07:45:00,64.5,57.8,30.05,SE,126,1.2,1.2,79,0.00,SCT,,0.00,WeatherDisplay:10.37,2013-08-29 14:45:00,
2013-08-29 07:46:00,64.6,57.6,30.05,SE,126,2.3,2.3,78,0.00,SCT,,0.00,WeatherDisplay:10.37,2013-08-29 14:46:00,
2013-08-29 07:48:00,64.6,57.6,30.05,SE,126,2.3,2.3,78,0.00,SCT,,0.00,WeatherDisplay:10.37,2013-08-29 14:48:00,
2013-08-29 07:50:00,64.7,57.3,30.05,SE,126,1.2,1.2,77,0.00,SCT,,0.00,WeatherDisplay:10.37,2013-08-29 14:50:00,
2013-08-29 07:51:00,64.7,57.7,30.05,SE,126,1.2,1.2,78,0.00,SCT,,0.00,WeatherDisplay:10.37,2013-08-29 14:51:00,
2013-08-29 07:53:00,64.7,57.3,30.05,ESE,103,4.6,4.6,77,0.00,SCT,,0.00,WeatherDisplay:10.37,2013-08-29 14:53:00,
2013-08-29 07:54:00,64.8,57.8,30.05,ESE,123,1.2,1.2,78,0.00,SCT,,0.00,WeatherDisplay:10.37,2013-08-29 14:54:00,
2013-08-29 07:56:00,64.8,57.8,30.05,ESE,123,2.3,0.0,78,0.00,SCT,,0.00,WeatherDisplay:10.37,2013-08-29 14:56:00,
2013-08-29 07:58:00,64.9,57.5,30.05,ESE,123,2.3,0.0,77,0.00,SCT,,0.00,WeatherDisplay:10.37,2013-08-29 14:58:00,
2013-08-29 08:00:00,64.9,57.5,30.05,SE,127,0.0,4.0,77,0.00,SCT,,0.00,WeatherDisplay:10.37,2013-08-29 15:00:00,
2013-08-29 08:01:00,64.9,57.5,30.05,SE,137,2.3,2.3,77,0.00,SCT,,0.00,WeatherDisplay:10.37,2013-08-29 15:01:00,
2013-08-29 08:03:00,64.9,57.5,30.05,SE,125,3.5,3.5,77,0.00,SCT,,0.00,WeatherDisplay:10.37,2013-08-29 15:03:00,
2013-08-29 08:04:00,64.9,57.9,30.05,SE,125,3.5,3.5,78,0.00,SCT,,0.00,WeatherDisplay:10.37,2013-08-29 15:04:00,
2013-08-29 08:05:00,64.9,57.9,30.05,ESE,108,3.5,3.5,78,0.00,SCT,,0.00,WeatherDisplay:10.37,2013-08-29 15:05:00,
2013-08-29 08:07:00,64.9,57.9,30.05,SE,133,3.5,3.5,78,0.00,SCT,,0.00,WeatherDisplay:10.37,2013-08-29 15:07:00,
2013-08-29 08:08:00,65.0,58.0,30.05,SE,130,2.3,2.3,78,0.00,SCT,,0.00,WeatherDisplay:10.37,2013-08-29 15:08:00,
2013-08-29 08:09:00,65.0,58.0,30.05,SE,140,3.5,3.5,78,0.00,SCT,,0.00,WeatherDisplay:10.37,2013-08-29 15:09:00,
2013-08-29 08:11:00,65.0,58.0,30.06,SE,133,3.5,3.5,78,0.00,SCT,,0.00,WeatherDisplay:10.37,2013-08-29 15:11:00,
2013-08-29 08:12:00,65.1,58.1,30.06,SE,133,3.5,3.5,78,0.00,SCT,,0.00,WeatherDisplay:10.37,2013-08-29 15:12:00,
2013-08-29 08:13:00,65.1,58.1,30.06,SSE,159,3.5,0.0,78,0.00,SCT,,0.00,WeatherDisplay:10.37,2013-08-29 15:13:00,
2013-08-29 08:14:00,65.2,58.2,30.06,SSE,156,0.0,0.0,78,0.00,SCT,,0.00,WeatherDisplay:10.37,2013-08-29 15:14:00,
2013-08-29 08:16:00,65.4,58.0,30.06,South,169,0.0,0.0,77,0.00,SCT,,0.00,WeatherDisplay:10.37,2013-08-29 15:16:00,
2013-08-29 08:17:00,65.4,58.0,30.06,South,169,0.0,0.0,77,0.00,SCT,,0.00,WeatherDisplay:10.37,2013-08-29 15:17:00,
2013-08-29 08:18:00,65.5,58.1,30.06,ESE,118,1.0,1.0,77,0.00,SCT,,0.00,WeatherDisplay:10.37,2013-08-29 15:18:00,
2013-08-29 08:20:00,65.5,58.1,30.06,South,184,3.5,3.5,77,0.00,SCT,,0.00,WeatherDisplay:10.37,2013-08-29 15:20:00,
2013-08-29 08:21:00,65.6,58.2,30.06,SSW,200,2.3,2.3,77,0.00,SCT,,0.00,WeatherDisplay:10.37,2013-08-29 15:21:00,
2013-08-29 08:22:00,65.7,57.9,30.06,SSW,200,1.2,1.2,76,0.00,SCT,,0.00,WeatherDisplay:10.37,2013-08-29 15:22:00,
2013-08-29 08:23:00,65.7,57.9,30.06,SSW,200,1.2,1.2,76,0.00,SCT,,0.00,WeatherDisplay:10.37,2013-08-29 15:23:00,
2013-08-29 08:26:00,65.7,57.9,30.06,ENE,65,3.5,3.5,76,0.00,SCT,,0.00,WeatherDisplay:10.37,2013-08-29 15:26:00,
2013-08-29 08:27:00,65.7,58.3,30.06,SW,221,3.5,3.5,77,0.00,SCT,,0.00,WeatherDisplay:10.37,2013-08-29 15:27:00,
2013-08-29 08:28:00,65.7,57.9,30.06,South,174,2.3,2.3,76,0.00,SCT,,0.00,WeatherDisplay:10.37,2013-08-29 15:28:00,
2013-08-29 08:29:00,65.7,58.3,30.06,SE,143,1.2,1.2,77,0.00,SCT,,0.00,WeatherDisplay:10.37,2013-08-29 15:29:00,
2013-08-29 08:33:00,65.5,58.1,30.06,SE,143,0.0,0.0,77,0.00,SCT,,0.00,WeatherDisplay:10.37,2013-08-29 15:33:00,
2013-08-29 08:34:00,65.5,58.1,30.06,SE,143,0.0,0.0,77,0.00,SCT,,0.00,WeatherDisplay:10.37,2013-08-29 15:34:00,
2013-08-29 08:37:00,65.6,58.2,30.06,South,181,1.0,1.0,77,0.00,SCT,,0.00,WeatherDisplay:10.37,2013-08-29 15:37:00,
2013-08-29 08:38:00,65.8,58.0,30.06,ESE,106,3.5,3.5,76,0.00,SCT,,0.00,WeatherDisplay:10.37,2013-08-29 15:38:00,
2013-08-29 08:39:00,65.8,58.0,30.06,ESE,104,3.5,3.5,76,0.00,SCT,,0.00,WeatherDisplay:10.37,2013-08-29 15:39:00,
2013-08-29 08:40:00,65.8,58.0,30.06,SE,142,0.0,3.0,76,0.00,SCT,,0.00,WeatherDisplay:10.37,2013-08-29 15:40:00,
2013-08-29 08:43:00,66.2,58.4,30.06,ESE,117,3.5,3.5,76,0.00,SCT,,0.00,WeatherDisplay:10.37,2013-08-29 15:43:00,
2013-08-29 08:44:00,66.2,58.4,30.06,ESE,117,3.5,3.5,76,0.00,SCT,,0.00,WeatherDisplay:10.37,2013-08-29 15:44:00,
2013-08-29 08:46:00,66.2,58.0,30.06,South,189,0.0,0.1,75,0.00,SCT,,0.00,WeatherDisplay:10.37,2013-08-29 15:46:00,
2013-08-29 08:49:00,66.1,58.3,30.06,SSW,195,2.3,2.3,76,0.00,SCT,,0.00,WeatherDisplay:10.37,2013-08-29 15:49:00,
2013-08-29 08:50:00,66.1,57.9,30.06,SSW,195,2.3,2.3,75,0.00,SCT,,0.00,WeatherDisplay:10.37,2013-08-29 15:50:00,
2013-08-29 08:51:00,66.1,58.3,30.06,SSW,212,2.3,2.3,76,0.00,SCT,,0.00,WeatherDisplay:10.37,2013-08-29 15:51:00,
2013-08-29 08:54:00,66.0,58.2,30.06,WSW,251,2.3,2.3,76,0.00,SCT,,0.00,WeatherDisplay:10.37,2013-08-29 15:54:00,
2013-08-29 08:55:00,66.1,58.3,30.06,WSW,251,2.3,0.0,76,0.00,SCT,,0.00,WeatherDisplay:10.37,2013-08-29 15:55:00,
2013-08-29 08:56:00,66.1,58.3,30.06,WSW,251,2.3,0.0,76,0.00,SCT,,0.00,WeatherDisplay:10.37,2013-08-29 15:56:00,
2013-08-29 08:57:00,66.2,58.4,30.06,WSW,256,1.2,0.0,76,0.00,SCT,,0.00,WeatherDisplay:10.37,2013-08-29 15:57:00,
2013-08-29 08:59:00,66.4,58.2,30.06,SSE,164,0.0,0.0,75,0.00,SCT,,0.00,WeatherDisplay:10.37,2013-08-29 15:59:00,
2013-08-29 09:00:00,66.5,58.3,30.06,SSE,164,0.0,0.0,75,0.00,SCT,,0.00,WeatherDisplay:10.37,2013-08-29 16:00:00,
2013-08-29 09:01:00,66.6,58.1,30.06,SSE,164,0.0,0.0,74,0.00,SCT,,0.00,WeatherDisplay:10.37,2013-08-29 16:01:00,
2013-08-29 09:02:00,66.6,58.1,30.06,SSE,164,0.0,0.0,74,0.00,SCT,,0.00,WeatherDisplay:10.37,2013-08-29 16:02:00,
2013-08-29 09:04:00,66.7,58.1,30.06,SSE,163,0.0,0.0,74,0.00,SCT,,0.00,WeatherDisplay:10.37,2013-08-29 16:04:00,
2013-08-29 09:06:00,66.7,58.1,30.06,SSE,163,0.0,0.0,74,0.00,SCT,,0.00,WeatherDisplay:10.37,2013-08-29 16:06:00,
2013-08-29 09:07:00,66.7,58.1,30.06,SSE,163,0.0,0.0,74,0.00,SCT,,0.00,WeatherDisplay:10.37,2013-08-29 16:07:00,
2013-08-29 09:09:00,67.0,58.4,30.06,SW,232,0.0,1.1,74,0.00,SCT,,0.00,WeatherDisplay:10.37,2013-08-29 16:09:00,
2013-08-29 09:10:00,67.1,58.5,30.06,WSW,239,2.3,2.3,74,0.00,SCT,,0.00,WeatherDisplay:10.37,2013-08-29 16:10:00,
2013-08-29 09:11:00,67.3,58.7,30.06,WSW,239,2.3,0.0,74,0.00,SCT,,0.00,WeatherDisplay:10.37,2013-08-29 16:11:00,
2013-08-29 09:13:00,67.5,58.5,30.06,ENE,76,0.0,0.3,73,0.00,SCT,,0.00,WeatherDisplay:10.37,2013-08-29 16:13:00,
2013-08-29 09:15:00,67.7,58.7,30.07,South,180,1.0,3.0,73,0.00,SCT,,0.00,WeatherDisplay:10.37,2013-08-29 16:15:00,
2013-08-29 09:18:00,67.8,58.4,30.07,ESE,113,2.3,0.0,72,0.00,SCT,,0.00,WeatherDisplay:10.37,2013-08-29 16:18:00,
2013-08-29 09:20:00,67.7,58.3,30.07,SE,141,0.0,0.0,72,0.00,SCT,,0.00,WeatherDisplay:10.37,2013-08-29 16:20:00,
2013-08-29 09:21:00,67.8,58.4,30.07,SE,136,5.0,5.0,72,0.00,SCT,,0.00,WeatherDisplay:10.37,2013-08-29 16:21:00,
2013-08-29 09:23:00,67.8,58.4,30.06,ESE,117,2.3,0.0,72,0.00,SCT,,0.00,WeatherDisplay:10.37,2013-08-29 16:23:00,
2013-08-29 09:24:00,67.8,58.4,30.06,ESE,118,2.3,2.3,72,0.00,SCT,,0.00,WeatherDisplay:10.37,2013-08-29 16:24:00,
2013-08-29 09:26:00,67.9,58.5,30.07,ESE,110,2.3,2.3,72,0.00,SCT,,0.00,WeatherDisplay:10.37,2013-08-29 16:26:00,
2013-08-29 09:28:00,67.9,58.5,30.07,SSE,151,0.0,0.0,72,0.00,SCT,,0.00,WeatherDisplay:10.37,2013-08-29 16:28:00,
2013-08-29 09:29:00,67.9,58.5,30.07,SSE,149,1.2,0.0,72,0.00,SCT,,0.00,WeatherDisplay:10.37,2013-08-29 16:29:00,
2013-08-29 09:31:00,67.9,58.5,30.07,SSE,149,1.2,0.0,72,0.00,SCT,,0.00,WeatherDisplay:10.37,2013-08-29 16:31:00,
2013-08-29 09:32:00,67.9,58.5,30.07,ESE,116,1.0,1.0,72,0.00,SCT,,0.00,WeatherDisplay:10.37,2013-08-29 16:32:00,
2013-08-29 09:34:00,67.8,58.4,30.07,SW,221,1.2,0.0,72,0.00,SCT,,0.00,WeatherDisplay:10.37,2013-08-29 16:34:00,
2013-08-29 09:35:00,67.8,58.4,30.07,NE,55,1.2,1.2,72,0.00,SCT,,0.00,WeatherDisplay:10.37,2013-08-29 16:35:00,
2013-08-29 09:36:00,67.8,58.4,30.07,South,178,1.2,1.2,72,0.00,SCT,,0.00,WeatherDisplay:10.37,2013-08-29 16:36:00,
2013-08-29 09:39:00,67.7,58.3,30.07,North,1,3.5,3.5,72,0.00,SCT,,0.00,WeatherDisplay:10.37,2013-08-29 16:39:00,
2013-08-29 09:40:00,67.7,58.7,30.07,North,1,0.0,0.0,73,0.00,SCT,,0.00,WeatherDisplay:10.37,2013-08-29 16:40:00,
2013-08-29 09:41:00,67.7,58.7,30.07,North,1,0.0,0.0,73,0.00,SCT,,0.00,WeatherDisplay:10.37,2013-08-29 16:41:00,
2013-08-29 09:45:00,67.8,58.8,30.07,SE,131,1.2,0.0,73,0.00,SCT,,0.00,WeatherDisplay:10.37,2013-08-29 16:45:00,
2013-08-29 09:46:00,67.8,58.8,30.07,SE,130,0.0,0.0,73,0.00,SCT,,0.00,WeatherDisplay:10.37,2013-08-29 16:46:00,
2013-08-29 09:47:00,67.8,58.8,30.07,SE,130,0.0,0.0,73,0.00,SCT,,0.00,WeatherDisplay:10.37,2013-08-29 16:47:00,
2013-08-29 09:48:00,67.9,58.9,30.08,ENE,59,0.0,0.3,73,0.00,SCT,,0.00,WeatherDisplay:10.37,2013-08-29 16:48:00,
2013-08-29 09:51:00,67.9,58.9,30.08,SE,126,3.0,3.0,73,0.00,SCT,,0.00,WeatherDisplay:10.37,2013-08-29 16:51:00,
2013-08-29 09:52:00,67.9,58.9,30.08,SE,130,3.0,3.0,73,0.00,SCT,,0.00,WeatherDisplay:10.37,2013-08-29 16:52:00,
2013-08-29 09:53:00,68.0,58.6,30.08,East,89,3.5,3.5,72,0.00,SCT,,0.00,WeatherDisplay:10.37,2013-08-29 16:53:00,
2013-08-29 09:54:00,68.1,58.7,30.08,SE,139,2.3,2.3,72,0.00,SCT,,0.00,WeatherDisplay:10.37,2013-08-29 16:54:00,
2013-08-29 09:56:00,68.2,58.8,30.07,SE,138,1.2,0.0,72,0.00,SCT,,0.00,WeatherDisplay:10.37,2013-08-29 16:56:00,
2013-08-29 09:58:00,68.2,58.8,30.07,SSE,151,0.0,0.0,72,0.00,SCT,,0.00,WeatherDisplay:10.37,2013-08-29 16:58:00,
2013-08-29 09:59:00,68.2,58.8,30.08,ESE,122,1.2,1.2,72,0.00,SCT,,0.00,WeatherDisplay:10.37,2013-08-29 16:59:00,
2013-08-29 10:00:00,68.2,58.8,30.08,ESE,122,1.2,1.2,72,0.00,SCT,,0.00,WeatherDisplay:10.37,2013-08-29 17:00:00,
2013-08-29 10:02:00,68.3,58.9,30.08,ESE,122,1.2,0.0,72,0.00,SCT,,0.00,WeatherDisplay:10.37,2013-08-29 17:02:00,
2013-08-29 10:04:00,68.3,58.9,30.08,ESE,122,0.0,0.0,72,0.00,SCT,,0.00,WeatherDisplay:10.37,2013-08-29 17:04:00,
2013-08-29 10:05:00,68.4,59.0,30.08,SW,217,1.2,1.2,72,0.00,SCT,,0.00,WeatherDisplay:10.37,2013-08-29 17:05:00,
2013-08-29 10:06:00,68.4,59.0,30.08,SW,218,0.0,0.0,72,0.00,SCT,,0.00,WeatherDisplay:10.37,2013-08-29 17:06:00,
2013-08-29 10:07:00,68.5,59.1,30.08,SSE,156,1.0,0.0,72,0.00,SCT,,0.00,WeatherDisplay:10.37,2013-08-29 17:07:00,
2013-08-29 10:08:00,68.5,59.1,30.08,SSW,194,1.2,1.2,72,0.00,SCT,,0.00,WeatherDisplay:10.37,2013-08-29 17:08:00,
2013-08-29 10:10:00,68.6,59.2,30.08,South,189,0.0,0.0,72,0.00,SCT,,0.00,WeatherDisplay:10.37,2013-08-29 17:10:00,
2013-08-29 10:12:00,69.0,59.2,30.08,SSW,212,0.0,0.0,71,0.00,SCT,,0.00,WeatherDisplay:10.37,2013-08-29 17:12:00,
2013-08-29 10:13:00,69.1,59.3,30.08,SE,145,1.0,0.0,71,0.00,SCT,,0.00,WeatherDisplay:10.37,2013-08-29 17:13:00,
2013-08-29 10:14:00,69.2,59.4,30.08,SE,131,1.0,0.0,71,0.00,SCT,,0.00,WeatherDisplay:10.37,2013-08-29 17:14:00,
2013-08-29 10:15:00,69.5,59.3,30.08,ESE,123,1.2,0.0,70,0.00,SCT,,0.00,WeatherDisplay:10.37,2013-08-29 17:15:00,
2013-08-29 10:17:00,69.8,59.6,30.08,ESE,113,1.2,1.2,70,0.00,SCT,,0.00,WeatherDisplay:10.37,2013-08-29 17:17:00,
2013-08-29 10:18:00,70.0,59.4,30.07,ESE,113,1.2,0.0,69,0.00,SCT,,0.00,WeatherDisplay:10.37,2013-08-29 17:18:00,
2013-08-29 10:19:00,70.1,59.9,30.07,SE,146,1.2,0.0,70,0.00,SCT,,0.00,WeatherDisplay:10.37,2013-08-29 17:19:00,
2013-08-29 10:21:00,70.5,59.8,30.07,East,101,0.0,0.0,69,0.00,SCT,,0.00,WeatherDisplay:10.37,2013-08-29 17:21:00,
2013-08-29 10:22:00,70.6,59.5,30.07,South,177,1.2,1.2,68,0.00,SCT,,0.00,WeatherDisplay:10.37,2013-08-29 17:22:00,
2013-08-29 10:25:00,70.7,59.6,30.07,SE,132,0.0,1.0,68,0.00,SCT,,0.00,WeatherDisplay:10.37,2013-08-29 17:25:00,
2013-08-29 10:27:00,71.0,59.9,30.07,SSE,163,0.0,0.0,68,0.00,SCT,,0.00,WeatherDisplay:10.37,2013-08-29 17:27:00,
2013-08-29 10:31:00,71.8,60.2,30.07,ENE,60,3.5,3.5,67,0.00,SCT,,0.00,WeatherDisplay:10.37,2013-08-29 17:31:00,
2013-08-29 10:32:00,72.0,60.0,30.07,East,94,1.2,1.2,66,0.00,SCT,,0.00,WeatherDisplay:10.37,2013-08-29 17:32:00,
2013-08-29 10:33:00,72.2,60.2,30.07,West,273,3.5,3.5,66,0.00,SCT,,0.00,WeatherDisplay:10.37,2013-08-29 17:33:00,
2013-08-29 10:36:00,72.8,59.9,30.07,ESE,106,3.5,3.5,64,0.00,SCT,,0.00,WeatherDisplay:10.37,2013-08-29 17:36:00,
2013-08-29 10:37:00,72.9,60.4,30.07,ESE,108,2.3,2.3,65,0.00,SCT,,0.00,WeatherDisplay:10.37,2013-08-29 17:37:00,
2013-08-29 10:38:00,73.0,60.1,30.07,East,86,2.3,2.3,64,0.00,SCT,,0.00,WeatherDisplay:10.37,2013-08-29 17:38:00,
2013-08-29 10:39:00,73.2,60.3,30.07,ENE,57,1.2,1.2,64,0.00,SCT,,0.00,WeatherDisplay:10.37,2013-08-29 17:39:00,
2013-08-29 10:40:00,73.2,60.3,30.07,East,92,0.0,3.0,64,0.00,SCT,,0.00,WeatherDisplay:10.37,2013-08-29 17:40:00,
2013-08-29 10:42:00,73.6,60.2,30.07,ENE,74,3.5,3.5,63,0.00,SCT,,0.00,WeatherDisplay:10.37,2013-08-29 17:42:00,
2013-08-29 10:43:00,73.6,59.8,30.08,ESE,114,3.5,3.5,62,0.00,SCT,,0.00,WeatherDisplay:10.37,2013-08-29 17:43:00,
2013-08-29 10:44:00,73.7,59.9,30.07,SE,125,5.0,5.0,62,0.00,SCT,,0.00,WeatherDisplay:10.37,2013-08-29 17:44:00,
2013-08-29 10:45:00,73.7,59.9,30.08,ESE,115,4.6,4.6,62,0.00,SCT,,0.00,WeatherDisplay:10.37,2013-08-29 17:45:00,
2013-08-29 10:47:00,73.9,60.1,30.08,NE,45,3.5,3.5,62,0.00,SCT,,0.00,WeatherDisplay:10.37,2013-08-29 17:47:00,
2013-08-29 10:48:00,73.9,59.6,30.08,SE,127,3.5,3.5,61,0.00,SCT,,0.00,WeatherDisplay:10.37,2013-08-29 17:48:00,
2013-08-29 10:49:00,74.0,60.2,30.07,SE,133,3.5,3.5,62,0.00,SCT,,0.00,WeatherDisplay:10.37,2013-08-29 17:49:00,
2013-08-29 10:50:00,74.0,60.2,30.08,ESE,115,3.5,3.5,62,0.00,SCT,,0.00,WeatherDisplay:10.37,2013-08-29 17:50:00,
2013-08-29 10:53:00,74.3,60.0,30.08,SE,127,3.5,3.5,61,0.00,SCT,,0.00,WeatherDisplay:10.37,2013-08-29 17:53:00,
2013-08-29 10:54:00,74.3,60.0,30.08,ENE,73,4.0,4.0,61,0.00,SCT,,0.00,WeatherDisplay:10.37,2013-08-29 17:54:00,
2013-08-29 10:55:00,74.3,60.0,30.08,SE,132,3.5,3.5,61,0.00,SCT,,0.00,WeatherDisplay:10.37,2013-08-29 17:55:00,
2013-08-29 10:56:00,74.4,60.1,30.08,SE,129,3.5,3.5,61,0.00,SCT,,0.00,WeatherDisplay:10.37,2013-08-29 17:56:00,
2013-08-29 10:58:00,74.6,60.3,30.08,SE,137,3.5,3.5,61,0.00,SCT,,0.00,WeatherDisplay:10.37,2013-08-29 17:58:00,
2013-08-29 11:01:00,74.8,60.0,30.08,South,173,8.1,8.1,60,0.00,SCT,,0.00,WeatherDisplay:10.37,2013-08-29 18:01:00,
2013-08-29 11:02:00,74.8,60.0,30.07,ESE,122,8.1,8.1,60,0.00,SCT,,0.00,WeatherDisplay:10.37,2013-08-29 18:02:00,
2013-08-29 11:04:00,74.9,60.5,30.08,SE,130,4.0,4.0,61,0.00,SCT,,0.00,WeatherDisplay:10.37,2013-08-29 18:04:00,
2013-08-29 11:06:00,75.1,60.3,30.08,NE,45,3.5,3.5,60,0.00,SCT,,0.00,WeatherDisplay:10.37,2013-08-29 18:06:00,
2013-08-29 11:07:00,75.0,60.2,30.08,SSE,167,3.5,3.5,60,0.00,SCT,,0.00,WeatherDisplay:10.37,2013-08-29 18:07:00,
2013-08-29 11:09:00,75.2,60.4,30.08,South,169,5.8,5.8,60,0.00,SCT,,0.00,WeatherDisplay:10.37,2013-08-29 18:09:00,
2013-08-29 11:12:00,75.4,60.1,30.08,SW,217,3.5,3.5,59,0.00,SCT,,0.00,WeatherDisplay:10.37,2013-08-29 18:12:00,
2013-08-29 11:13:00,75.4,60.1,30.08,SW,219,3.5,0.0,59,0.00,SCT,,0.00,WeatherDisplay:10.37,2013-08-29 18:13:00,
2013-08-29 11:14:00,75.5,60.2,30.08,SSW,202,4.6,4.6,59,0.00,SCT,,0.00,WeatherDisplay:10.37,2013-08-29 18:14:00,
2013-08-29 11:17:00,75.7,60.4,30.07,SW,215,3.5,3.5,59,0.00,SCT,,0.00,WeatherDisplay:10.37,2013-08-29 18:17:00,
2013-08-29 11:18:00,75.8,60.4,30.07,SW,224,3.5,3.5,59,0.00,SCT,,0.00,WeatherDisplay:10.37,2013-08-29 18:18:00,
2013-08-29 11:19:00,76.0,60.2,30.08,SE,139,3.5,3.5,58,0.00,SCT,,0.00,WeatherDisplay:10.37,2013-08-29 18:19:00,
2013-08-29 11:20:00,76.1,60.2,30.08,ESE,114,3.5,3.5,58,0.00,SCT,,0.00,WeatherDisplay:10.37,2013-08-29 18:20:00,
2013-08-29 11:21:00,76.2,60.3,30.08,East,91,1.2,1.2,58,0.00,SCT,,0.00,WeatherDisplay:10.37,2013-08-29 18:21:00,
2013-08-29 11:23:00,76.4,60.5,30.08,SSW,205,2.3,2.3,58,0.00,SCT,,0.00,WeatherDisplay:10.37,2013-08-29 18:23:00,
2013-08-29 11:24:00,76.6,60.7,30.08,ESE,122,0.0,0.0,58,0.00,SCT,,0.00,WeatherDisplay:10.37,2013-08-29 18:24:00,
2013-08-29 11:25:00,76.6,60.7,30.07,SE,124,1.0,0.0,58,0.00,SCT,,0.00,WeatherDisplay:10.37,2013-08-29 18:25:00,
2013-08-29 11:26:00,76.7,60.8,30.07,ESE,107,4.0,4.0,58,0.00,SCT,,0.00,WeatherDisplay:10.37,2013-08-29 18:26:00,
2013-08-29 11:29:00,76.9,60.5,30.08,SSE,163,4.0,4.0,57,0.00,SCT,,0.00,WeatherDisplay:10.37,2013-08-29 18:29:00,
2013-08-29 11:30:00,77.0,60.6,30.08,ENE,64,1.2,1.2,57,0.00,SCT,,0.00,WeatherDisplay:10.37,2013-08-29 18:30:00,
2013-08-29 11:31:00,77.0,60.1,30.08,SE,146,1.2,1.2,56,0.00,SCT,,0.00,WeatherDisplay:10.37,2013-08-29 18:31:00,
2013-08-29 11:32:00,77.1,60.2,30.08,SSE,147,1.2,1.2,56,0.00,SCT,,0.00,WeatherDisplay:10.37,2013-08-29 18:32:00,
2013-08-29 11:34:00,77.2,60.3,30.07,SE,138,1.2,1.2,56,0.00,SCT,,0.00,WeatherDisplay:10.37,2013-08-29 18:34:00,
2013-08-29 11:35:00,77.2,60.3,30.07,SE,135,0.0,2.0,56,0.00,SCT,,0.00,WeatherDisplay:10.37,2013-08-29 18:35:00,
2013-08-29 11:37:00,77.5,60.6,30.08,ESE,116,3.5,3.5,56,0.00,SCT,,0.00,WeatherDisplay:10.37,2013-08-29 18:37:00,
2013-08-29 11:38:00,77.6,60.7,30.08,SSE,161,3.5,3.5,56,0.00,SCT,,0.00,WeatherDisplay:10.37,2013-08-29 18:38:00,
2013-08-29 11:39:00,77.7,60.2,30.08,East,101,3.5,3.5,55,0.00,SCT,,0.00,WeatherDisplay:10.37,2013-08-29 18:39:00,
2013-08-29 11:40:00,77.7,60.2,30.07,ENE,62,3.5,3.5,55,0.00,SCT,,0.00,WeatherDisplay:10.37,2013-08-29 18:40:00,
2013-08-29 11:41:00,77.7,60.2,30.08,ESE,119,6.0,6.0,55,0.00,SCT,,0.00,WeatherDisplay:10.37,2013-08-29 18:41:00,
2013-08-29 11:45:00,77.7,60.8,30.08,ESE,118,2.3,2.3,56,0.00,SCT,,0.00,WeatherDisplay:10.37,2013-08-29 18:45:00,
2013-08-29 11:46:00,77.8,60.8,30.08,South,169,2.3,2.3,56,0.00,SCT,,0.00,WeatherDisplay:10.37,2013-08-29 18:46:00,
2013-08-29 11:50:00,77.9,60.9,30.08,East,90,3.5,3.5,56,0.00,SCT,,0.00,WeatherDisplay:10.37,2013-08-29 18:50:00,
2013-08-29 11:51:00,77.9,60.4,30.08,ESE,108,3.5,3.5,55,0.00,SCT,,0.00,WeatherDisplay:10.37,2013-08-29 18:51:00,
2013-08-29 11:52:00,78.0,60.5,30.08,ESE,111,3.5,3.5,55,0.00,SCT,,0.00,WeatherDisplay:10.37,2013-08-29 18:52:00,
2013-08-29 11:55:00,77.9,60.9,30.07,ENE,71,3.5,3.5,56,0.00,SCT,,0.00,WeatherDisplay:10.37,2013-08-29 18:55:00,
2013-08-29 11:57:00,78.0,61.0,30.07,ESE,113,3.5,3.5,56,0.00,SCT,,0.00,WeatherDisplay:10.37,2013-08-29 18:57:00,
2013-08-29 11:59:00,78.1,60.6,30.07,East,82,4.6,4.6,55,0.00,SCT,,0.00,WeatherDisplay:10.37,2013-08-29 18:59:00,
2013-08-29 12:00:00,78.2,61.2,30.07,ENE,77,3.5,3.5,56,0.00,SCT,,0.00,WeatherDisplay:10.37,2013-08-29 19:00:00,
2013-08-29 12:02:00,78.5,60.5,30.08,NE,45,4.6,4.6,54,0.00,SCT,,0.00,WeatherDisplay:10.37,2013-08-29 19:02:00,
2013-08-29 12:03:00,78.5,60.5,30.07,ESE,117,4.6,4.6,54,0.00,SCT,,0.00,WeatherDisplay:10.37,2013-08-29 19:03:00,
2013-08-29 12:04:00,78.5,60.5,30.07,East,96,4.6,4.6,54,0.00,SCT,,0.00,WeatherDisplay:10.37,2013-08-29 19:04:00,
2013-08-29 12:05:00,78.7,60.7,30.07,SE,146,3.5,3.5,54,0.00,SCT,,0.00,WeatherDisplay:10.37,2013-08-29 19:05:00,
2013-08-29 12:06:00,78.8,60.7,30.07,NNW,343,2.3,2.3,54,0.00,SCT,,0.00,WeatherDisplay:10.37,2013-08-29 19:06:00,
2013-08-29 12:07:00,78.9,60.8,30.07,ESE,104,2.3,2.3,54,0.00,SCT,,0.00,WeatherDisplay:10.37,2013-08-29 19:07:00,
2013-08-29 12:08:00,79.1,61.0,30.07,South,187,2.3,2.3,54,0.00,SCT,,0.00,WeatherDisplay:10.37,2013-08-29 19:08:00,
2013-08-29 12:09:00,79.1,61.0,30.07,SE,134,4.0,4.0,54,0.00,SCT,,0.00,WeatherDisplay:10.37,2013-08-29 19:09:00,
2013-08-29 12:11:00,79.3,60.7,30.07,East,87,1.2,1.2,53,0.00,SCT,,0.00,WeatherDisplay:10.37,2013-08-29 19:11:00,
2013-08-29 12:12:00,79.4,60.8,30.07,NNE,20,4.6,4.6,53,0.00,SCT,,0.00,WeatherDisplay:10.37,2013-08-29 19:12:00,
2013-08-29 12:13:00,79.4,60.8,30.07,NNE,20,4.6,4.6,53,0.00,SCT,,0.00,WeatherDisplay:10.37,2013-08-29 19:13:00,
2013-08-29 12:14:00,79.4,60.8,30.07,ESE,107,5.0,5.0,53,0.00,SCT,,0.00,WeatherDisplay:10.37,2013-08-29 19:14:00,
2013-08-29 12:18:00,79.7,61.1,30.07,SW,214,2.3,2.3,53,0.00,SCT,,0.00,WeatherDisplay:10.37,2013-08-29 19:18:00,
2013-08-29 12:20:00,80.0,61.3,30.07,East,84,6.0,6.0,53,0.00,SCT,,0.00,WeatherDisplay:10.37,2013-08-29 19:20:00,
2013-08-29 12:23:00,80.3,61.1,30.07,SSW,210,1.2,1.2,52,0.00,SCT,,0.00,WeatherDisplay:10.37,2013-08-29 19:23:00,
2013-08-29 12:24:00,80.4,61.2,30.07,ENE,76,4.0,4.0,52,0.00,SCT,,0.00,WeatherDisplay:10.37,2013-08-29 19:24:00,
2013-08-29 12:25:00,80.4,60.6,30.07,East,80,4.6,4.6,51,0.00,SCT,,0.00,WeatherDisplay:10.37,2013-08-29 19:25:00,
2013-08-29 12:26:00,80.4,61.2,30.07,East,85,4.6,4.6,52,0.00,SCT,,0.00,WeatherDisplay:10.37,2013-08-29 19:26:00,
2013-08-29 12:28:00,80.7,61.4,30.07,East,92,2.3,2.3,52,0.00,SCT,,0.00,WeatherDisplay:10.37,2013-08-29 19:28:00,
2013-08-29 12:29:00,80.7,61.4,30.07,East,88,2.3,2.3,52,0.00,SCT,,0.00,WeatherDisplay:10.37,2013-08-29 19:29:00,
2013-08-29 12:30:00,80.9,61.1,30.07,East,98,5.0,5.0,51,0.00,SCT,,0.00,WeatherDisplay:10.37,2013-08-29 19:30:00,
2013-08-29 12:32:00,80.9,60.5,30.07,East,84,4.6,4.6,50,0.00,SCT,,0.00,WeatherDisplay:10.37,2013-08-29 19:32:00,
2013-08-29 12:33:00,81.1,61.3,30.07,SE,126,3.5,3.5,51,0.00,SCT,,0.00,WeatherDisplay:10.37,2013-08-29 19:33:00,
2013-08-29 12:34:00,81.1,61.3,30.07,ESE,118,3.5,3.5,51,0.00,SCT,,0.00,WeatherDisplay:10.37,2013-08-29 19:34:00,
2013-08-29 12:36:00,81.2,61.4,30.07,NE,54,4.6,4.6,51,0.00,SCT,,0.00,WeatherDisplay:10.37,2013-08-29 19:36:00,
2013-08-29 12:38:00,81.3,60.9,30.06,SSE,156,3.5,3.5,50,0.00,SCT,,0.00,WeatherDisplay:10.37,2013-08-29 19:38:00,
2013-08-29 12:39:00,81.3,60.9,30.06,SE,138,3.5,3.5,50,0.00,SCT,,0.00,WeatherDisplay:10.37,2013-08-29 19:39:00,
2013-08-29 12:41:00,81.4,61.5,30.07,South,171,4.6,4.6,51,0.00,SCT,,0.00,WeatherDisplay:10.37,2013-08-29 19:41:00,
2013-08-29 12:42:00,81.5,60.5,30.06,ESE,103,3.5,3.5,49,0.00,SCT,,0.00,WeatherDisplay:10.37,2013-08-29 19:42:00,
2013-08-29 12:43:00,81.5,61.1,30.06,East,100,4.6,4.6,50,0.00,SCT,,0.00,WeatherDisplay:10.37,2013-08-29 19:43:00,
2013-08-29 12:44:00,81.5,61.1,30.06,East,96,4.6,4.6,50,0.00,SCT,,0.00,WeatherDisplay:10.37,2013-08-29 19:44:00,
2013-08-29 12:47:00,81.6,61.2,30.06,SSE,147,1.2,1.4,50,0.00,SCT,,0.00,WeatherDisplay:10.37,2013-08-29 19:47:00,
2013-08-29 12:48:00,81.6,61.2,30.06,SE,133,2.0,2.0,50,0.00,SCT,,0.00,WeatherDisplay:10.37,2013-08-29 19:48:00,
2013-08-29 12:49:00,81.7,60.7,30.06,ESE,112,5.8,5.8,49,0.00,SCT,,0.00,WeatherDisplay:10.37,2013-08-29 19:49:00,
2013-08-29 12:50:00,81.8,60.8,30.06,ESE,117,4.6,4.6,49,0.00,SCT,,0.00,WeatherDisplay:10.37,2013-08-29 19:50:00,
2013-08-29 12:51:00,81.8,60.8,30.06,ESE,110,4.6,4.6,49,0.00,SCT,,0.00,WeatherDisplay:10.37,2013-08-29 19:51:00,
2013-08-29 12:53:00,82.1,61.0,30.06,SE,133,1.2,1.2,49,0.00,SCT,,0.00,WeatherDisplay:10.37,2013-08-29 19:53:00,
2013-08-29 12:54:00,82.1,61.0,30.06,SE,133,1.2,1.2,49,0.00,SCT,,0.00,WeatherDisplay:10.37,2013-08-29 19:54:00,
2013-08-29 12:55:00,82.2,61.1,30.06,SSE,148,1.2,1.2,49,0.00,SCT,,0.00,WeatherDisplay:10.37,2013-08-29 19:55:00,
2013-08-29 12:56:00,82.4,60.7,30.06,SE,129,2.3,2.3,48,0.00,SCT,,0.00,WeatherDisplay:10.37,2013-08-29 19:56:00,
2013-08-29 12:59:00,82.5,60.8,30.06,East,94,3.5,3.5,48,0.00,SCT,,0.00,WeatherDisplay:10.37,2013-08-29 19:59:00,
2013-08-29 13:00:00,82.6,60.9,30.06,NNE,29,4.6,4.6,48,0.00,SCT,,0.00,WeatherDisplay:10.37,2013-08-29 20:00:00,
2013-08-29 13:01:00,82.7,60.4,30.06,East,90,4.6,4.6,47,0.00,SCT,,0.00,WeatherDisplay:10.37,2013-08-29 20:01:00,
2013-08-29 13:02:00,82.7,60.4,30.06,ESE,108,5.8,5.8,47,0.00,SCT,,0.00,WeatherDisplay:10.37,2013-08-29 20:02:00,
2013-08-29 13:03:00,82.8,61.1,30.06,ENE,77,3.5,3.5,48,0.00,SCT,,0.00,WeatherDisplay:10.37,2013-08-29 20:03:00,
2013-08-29 13:04:00,82.8,61.1,30.06,ENE,78,3.5,3.5,48,0.00,SCT,,0.00,WeatherDisplay:10.37,2013-08-29 20:04:00,
2013-08-29 13:06:00,83.1,60.8,30.06,SSW,206,4.6,4.6,47,0.00,SCT,,0.00,WeatherDisplay:10.37,2013-08-29 20:06:00,
2013-08-29 13:08:00,83.1,60.8,30.06,SE,130,4.0,4.0,47,0.00,SCT,,0.00,WeatherDisplay:10.37,2013-08-29 20:08:00,
2013-08-29 13:09:00,83.1,60.2,30.06,ESE,108,3.5,3.5,46,0.00,SCT,,0.00,WeatherDisplay:10.37,2013-08-29 20:09:00,
2013-08-29 13:10:00,83.1,60.8,30.06,ENE,67,3.5,3.5,47,0.00,SCT,,0.00,WeatherDisplay:10.37,2013-08-29 20:10:00,
2013-08-29 13:11:00,83.1,60.8,30.05,ESE,108,3.5,3.5,47,0.00,SCT,,0.00,WeatherDisplay:10.37,2013-08-29 20:11:00,
2013-08-29 13:13:00,83.1,60.8,30.06,East,100,3.5,3.5,47,0.00,SCT,,0.00,WeatherDisplay:10.37,2013-08-29 20:13:00,
2013-08-29 13:15:00,83.4,61.1,30.05,SE,133,4.6,4.6,47,0.00,SCT,,0.00,WeatherDisplay:10.37,2013-08-29 20:15:00,
2013-08-29 13:16:00,83.4,61.1,30.05,SE,133,4.6,4.6,47,0.00,SCT,,0.00,WeatherDisplay:10.37,2013-08-29 20:16:00,
2013-08-29 13:18:00,83.7,60.7,30.06,ENE,73,3.5,3.5,46,0.00,SCT,,0.00,WeatherDisplay:10.37,2013-08-29 20:18:00,
2013-08-29 13:20:00,83.9,60.9,30.06,East,100,3.5,3.5,46,0.00,SCT,,0.00,WeatherDisplay:10.37,2013-08-29 20:20:00,
2013-08-29 13:21:00,84.0,60.4,30.06,East,100,1.2,0.0,45,0.00,SCT,,0.00,WeatherDisplay:10.37,2013-08-29 20:21:00,
2013-08-29 13:22:00,84.1,61.1,30.06,East,100,0.0,0.1,46,0.00,SCT,,0.00,WeatherDisplay:10.37,2013-08-29 20:22:00,
2013-08-29 13:23:00,84.2,60.6,30.05,SSW,197,2.3,2.3,45,0.00,SCT,,0.00,WeatherDisplay:10.37,2013-08-29 20:23:00,
2013-08-29 13:25:00,84.1,60.5,30.06,SSE,153,1.2,1.2,45,0.00,SCT,,0.00,WeatherDisplay:10.37,2013-08-29 20:25:00,
2013-08-29 13:27:00,84.3,61.3,30.05,SSE,163,1.2,1.2,46,0.00,SCT,,0.00,WeatherDisplay:10.37,2013-08-29 20:27:00,
2013-08-29 13:28:00,84.4,60.1,30.06,SSE,150,2.3,2.3,44,0.00,SCT,,0.00,WeatherDisplay:10.37,2013-08-29 20:28:00,
2013-08-29 13:30:00,84.3,60.0,30.05,ESE,120,3.5,3.5,44,0.00,SCT,,0.00,WeatherDisplay:10.37,2013-08-29 20:30:00,
2013-08-29 13:33:00,84.5,60.2,30.05,SSE,153,2.3,2.3,44,0.00,SCT,,0.00,WeatherDisplay:10.37,2013-08-29 20:33:00,
2013-08-29 13:34:00,84.5,60.2,30.05,SSE,153,2.3,2.3,44,0.00,SCT,,0.00,WeatherDisplay:10.37,2013-08-29 20:34:00,
2013-08-29 13:36:00,84.4,60.1,30.05,SSE,161,3.5,3.5,44,0.00,SCT,,0.00,WeatherDisplay:10.37,2013-08-29 20:36:00,
2013-08-29 13:38:00,84.4,60.7,30.05,ESE,116,1.2,1.6,45,0.00,SCT,,0.00,WeatherDisplay:10.37,2013-08-29 20:38:00,
2013-08-29 13:39:00,84.6,60.3,30.05,ESE,118,4.6,4.6,44,0.00,SCT,,0.00,WeatherDisplay:10.37,2013-08-29 20:39:00,
2013-08-29 13:40:00,84.8,60.5,30.05,SSW,213,1.2,1.2,44,0.00,SCT,,0.00,WeatherDisplay:10.37,2013-08-29 20:40:00,
2013-08-29 13:41:00,84.8,59.8,30.05,SSW,204,1.2,1.2,43,0.00,SCT,,0.00,WeatherDisplay:10.37,2013-08-29 20:41:00,
2013-08-29 13:42:00,84.7,59.7,30.05,SSW,204,0.0,0.0,43,0.00,SCT,,0.00,WeatherDisplay:10.37,2013-08-29 20:42:00,
2013-08-29 13:43:00,84.6,60.3,30.05,SSW,202,1.2,1.2,44,0.00,SCT,,0.00,WeatherDisplay:10.37,2013-08-29 20:43:00,
2013-08-29 13:44:00,84.5,60.2,30.05,SSW,199,2.3,2.3,44,0.00,SCT,,0.00,WeatherDisplay:10.37,2013-08-29 20:44:00,
2013-08-29 13:45:00,84.5,60.2,30.05,SE,145,0.0,2.0,44,0.00,SCT,,0.00,WeatherDisplay:10.37,2013-08-29 20:45:00,
2013-08-29 13:46:00,84.4,59.5,30.05,SSW,197,2.3,2.3,43,0.00,SCT,,0.00,WeatherDisplay:10.37,2013-08-29 20:46:00,
2013-08-29 13:47:00,84.3,59.4,30.05,SSE,164,2.3,2.3,43,0.00,SCT,,0.00,WeatherDisplay:10.37,2013-08-29 20:47:00,
2013-08-29 13:48:00,84.3,59.4,30.05,South,182,1.2,1.2,43,0.00,SCT,,0.00,WeatherDisplay:10.37,2013-08-29 20:48:00,
2013-08-29 13:50:00,84.4,59.5,30.05,ENE,58,3.5,3.5,43,0.00,SCT,,0.00,WeatherDisplay:10.37,2013-08-29 20:50:00,
2013-08-29 13:51:00,84.5,60.2,30.05,ESE,121,3.5,3.5,44,0.00,SCT,,0.00,WeatherDisplay:10.37,2013-08-29 20:51:00,
2013-08-29 13:52:00,84.7,59.7,30.05,South,191,1.2,1.2,43,0.00,SCT,,0.00,WeatherDisplay:10.37,2013-08-29 20:52:00,
2013-08-29 13:54:00,85.0,60.0,30.05,South,173,2.3,0.0,43,0.00,SCT,,0.00,WeatherDisplay:10.37,2013-08-29 20:54:00,
2013-08-29 13:56:00,85.3,60.3,30.05,SE,145,1.2,1.2,43,0.00,SCT,,0.00,WeatherDisplay:10.37,2013-08-29 20:56:00,
2013-08-29 13:57:00,85.3,59.6,30.05,SE,145,1.2,0.0,42,0.00,SCT,,0.00,WeatherDisplay:10.37,2013-08-29 20:57:00,
2013-08-29 13:59:00,85.3,58.9,30.05,SSW,192,0.0,0.2,41,0.00,SCT,,0.00,WeatherDisplay:10.37,2013-08-29 20:59:00,
2013-08-29 14:00:00,85.3,58.9,30.05,SSE,159,0.0,2.0,41,0.00,SCT,,0.00,WeatherDisplay:10.37,2013-08-29 21:00:00,
2013-08-29 14:01:00,85.1,59.4,30.05,South,172,1.2,1.2,42,0.00,SCT,,0.00,WeatherDisplay:10.37,2013-08-29 21:01:00,
2013-08-29 14:02:00,85.2,58.8,30.05,South,172,4.6,4.6,41,0.00,SCT,,0.00,WeatherDisplay:10.37,2013-08-29 21:02:00,
2013-08-29 14:04:00,85.2,58.8,30.05,SSE,167,6.9,6.9,41,0.00,SCT,,0.00,WeatherDisplay:10.37,2013-08-29 21:04:00,
2013-08-29 14:06:00,85.3,59.6,30.05,SW,217,3.5,3.5,42,0.00,SCT,,0.00,WeatherDisplay:10.37,2013-08-29 21:06:00,
2013-08-29 14:07:00,85.3,59.6,30.05,WSW,248,2.3,2.3,42,0.00,SCT,,0.00,WeatherDisplay:10.37,2013-08-29 21:07:00,
2013-08-29 14:09:00,85.3,59.6,30.05,ESE,107,3.5,3.5,42,0.00,SCT,,0.00,WeatherDisplay:10.37,2013-08-29 21:09:00,
2013-08-29 14:12:00,85.5,59.8,30.05,ESE,106,3.5,3.5,42,0.00,SCT,,0.00,WeatherDisplay:10.37,2013-08-29 21:12:00,
2013-08-29 14:15:00,85.8,59.4,30.05,SE,125,3.5,3.5,41,0.00,SCT,,0.00,WeatherDisplay:10.37,2013-08-29 21:15:00,
2013-08-29 14:17:00,86.1,59.6,30.05,East,92,2.3,2.3,41,0.00,SCT,,0.00,WeatherDisplay:10.37,2013-08-29 21:17:00,
2013-08-29 14:18:00,86.1,59.6,30.05,East,92,2.3,2.3,41,0.00,SCT,,0.00,WeatherDisplay:10.37,2013-08-29 21:18:00,
2013-08-29 14:19:00,86.3,59.1,30.04,East,98,5.0,5.0,40,0.00,SCT,,0.00,WeatherDisplay:10.37,2013-08-29 21:19:00,
2013-08-29 14:20:00,86.4,59.9,30.05,SSE,151,6.0,6.0,41,0.00,SCT,,0.00,WeatherDisplay:10.37,2013-08-29 21:20:00,
2013-08-29 14:21:00,86.4,59.9,30.05,SSE,155,4.6,4.6,41,0.00,SCT,,0.00,WeatherDisplay:10.37,2013-08-29 21:21:00,
2013-08-29 14:22:00,86.6,59.4,30.05,ESE,122,5.0,5.0,40,0.00,SCT,,0.00,WeatherDisplay:10.37,2013-08-29 21:22:00,
2013-08-29 14:23:00,86.6,59.4,30.05,East,83,3.5,3.5,40,0.00,SCT,,0.00,WeatherDisplay:10.37,2013-08-29 21:23:00,
2013-08-29 14:24:00,86.6,59.4,30.05,ESE,123,4.6,4.6,40,0.00,SCT,,0.00,WeatherDisplay:10.37,2013-08-29 21:24:00,
2013-08-29 14:25:00,86.7,59.5,30.04,SE,139,6.9,6.9,40,0.00,SCT,,0.00,WeatherDisplay:10.37,2013-08-29 21:25:00,
2013-08-29 14:26:00,86.7,58.8,30.05,SSE,161,6.9,6.9,39,0.00,SCT,,0.00,WeatherDisplay:10.37,2013-08-29 21:26:00,
2013-08-29 14:27:00,86.8,59.6,30.05,SE,128,4.0,4.0,40,0.00,SCT,,0.00,WeatherDisplay:10.37,2013-08-29 21:27:00,
2013-08-29 14:28:00,86.8,59.6,30.04,SE,128,3.5,3.5,40,0.00,SCT,,0.00,WeatherDisplay:10.37,2013-08-29 21:28:00,
2013-08-29 14:29:00,86.8,58.9,30.04,SE,127,6.9,6.9,39,0.00,SCT,,0.00,WeatherDisplay:10.37,2013-08-29 21:29:00,
2013-08-29 14:30:00,86.8,59.6,30.04,South,181,6.9,6.9,40,0.00,SCT,,0.00,WeatherDisplay:10.37,2013-08-29 21:30:00,
2013-08-29 14:31:00,86.8,59.6,30.05,SE,133,6.9,6.9,40,0.00,SCT,,0.00,WeatherDisplay:10.37,2013-08-29 21:31:00,
2013-08-29 14:32:00,86.8,59.6,30.04,East,90,5.8,5.8,40,0.00,SCT,,0.00,WeatherDisplay:10.37,2013-08-29 21:32:00,
2013-08-29 14:34:00,86.8,59.6,30.05,ESE,118,5.0,5.0,40,0.00,SCT,,0.00,WeatherDisplay:10.37,2013-08-29 21:34:00,
2013-08-29 14:35:00,86.8,59.6,30.04,ESE,118,4.6,4.6,40,0.00,SCT,,0.00,WeatherDisplay:10.37,2013-08-29 21:35:00,
2013-08-29 14:36:00,86.8,59.6,30.05,SE,127,4.6,4.6,40,0.00,SCT,,0.00,WeatherDisplay:10.37,2013-08-29 21:36:00,
2013-08-29 14:37:00,86.9,59.7,30.05,ESE,105,3.5,3.5,40,0.00,SCT,,0.00,WeatherDisplay:10.37,2013-08-29 21:37:00,
2013-08-29 14:39:00,87.1,59.1,30.05,SSE,147,3.5,3.5,39,0.00,SCT,,0.00,WeatherDisplay:10.37,2013-08-29 21:39:00,
2013-08-29 14:40:00,87.1,59.1,30.05,ESE,122,0.0,4.0,39,0.00,SCT,,0.00,WeatherDisplay:10.37,2013-08-29 21:40:00,
2013-08-29 14:41:00,87.1,59.1,30.04,SE,134,1.2,1.2,39,0.00,SCT,,0.00,WeatherDisplay:10.37,2013-08-29 21:41:00,
2013-08-29 14:42:00,87.1,59.1,30.05,ESE,123,3.5,3.5,39,0.00,SCT,,0.00,WeatherDisplay:10.37,2013-08-29 21:42:00,
2013-08-29 14:45:00,87.2,59.2,30.04,ESE,112,2.3,2.3,39,0.00,SCT,,0.00,WeatherDisplay:10.37,2013-08-29 21:45:00,
2013-08-29 14:46:00,87.2,58.5,30.04,ESE,123,3.5,3.5,38,0.00,SCT,,0.00,WeatherDisplay:10.37,2013-08-29 21:46:00,
2013-08-29 14:47:00,87.2,59.2,30.05,SE,130,3.5,3.5,39,0.00,SCT,,0.00,WeatherDisplay:10.37,2013-08-29 21:47:00,
2013-08-29 14:48:00,87.3,57.8,30.04,East,85,6.0,6.0,37,0.00,SCT,,0.00,WeatherDisplay:10.37,2013-08-29 21:48:00,
2013-08-29 14:50:00,87.3,58.6,30.04,SE,138,3.5,3.5,38,0.00,SCT,,0.00,WeatherDisplay:10.37,2013-08-29 21:50:00,
2013-08-29 14:51:00,87.3,59.3,30.04,East,80,2.3,2.3,39,0.00,SCT,,0.00,WeatherDisplay:10.37,2013-08-29 21:51:00,
2013-08-29 14:52:00,87.3,59.3,30.04,East,82,2.3,2.3,39,0.00,SCT,,0.00,WeatherDisplay:10.37,2013-08-29 21:52:00,
2013-08-29 14:53:00,87.4,59.4,30.04,SE,136,2.3,2.3,39,0.00,SCT,,0.00,WeatherDisplay:10.37,2013-08-29 21:53:00,
2013-08-29 14:55:00,87.5,58.8,30.04,SE,131,3.5,3.5,38,0.00,SCT,,0.00,WeatherDisplay:10.37,2013-08-29 21:55:00,
2013-08-29 14:57:00,87.5,58.8,30.04,ENE,68,3.0,3.0,38,0.00,SCT,,0.00,WeatherDisplay:10.37,2013-08-29 21:57:00,
2013-08-29 14:58:00,87.5,59.5,30.04,East,97,4.6,4.6,39,0.00,SCT,,0.00,WeatherDisplay:10.37,2013-08-29 21:58:00,
2013-08-29 14:59:00,87.5,59.5,30.04,ESE,123,5.0,5.0,39,0.00,SCT,,0.00,WeatherDisplay:10.37,2013-08-29 21:59:00,
2013-08-29 15:01:00,87.6,58.9,30.04,South,186,9.2,9.2,38,0.00,SCT,,0.00,WeatherDisplay:10.37,2013-08-29 22:01:00,
2013-08-29 15:02:00,87.6,58.1,30.04,SW,224,5.8,5.8,37,0.00,SCT,,0.00,WeatherDisplay:10.37,2013-08-29 22:02:00,
2013-08-29 15:03:00,87.6,58.9,30.04,South,183,2.3,2.3,38,0.00,SCT,,0.00,WeatherDisplay:10.37,2013-08-29 22:03:00,
2013-08-29 15:04:00,87.5,58.8,30.04,WSW,245,2.3,2.3,38,0.00,SCT,,0.00,WeatherDisplay:10.37,2013-08-29 22:04:00,
2013-08-29 15:05:00,87.5,58.7,30.04,SE,142,0.0,6.0,38,0.00,SCT,,0.00,WeatherDisplay:10.37,2013-08-29 22:05:00,
2013-08-29 15:07:00,87.3,58.6,30.04,ESE,118,4.0,4.0,38,0.00,SCT,,0.00,WeatherDisplay:10.37,2013-08-29 22:07:00,
2013-08-29 15:09:00,87.2,58.5,30.04,SSE,147,3.5,3.5,38,0.00,SCT,,0.00,WeatherDisplay:10.37,2013-08-29 22:09:00,
2013-08-29 15:10:00,87.3,58.6,30.04,SSE,148,1.2,1.2,38,0.00,SCT,,0.00,WeatherDisplay:10.37,2013-08-29 22:10:00,
2013-08-29 15:12:00,87.4,59.4,30.04,ESE,122,1.2,1.2,39,0.00,SCT,,0.00,WeatherDisplay:10.37,2013-08-29 22:12:00,
2013-08-29 15:14:00,87.5,58.8,30.04,SE,127,2.3,2.3,38,0.00,SCT,,0.00,WeatherDisplay:10.37,2013-08-29 22:14:00,
2013-08-29 15:17:00,87.6,58.1,30.03,SW,219,3.5,3.5,37,0.00,SCT,,0.00,WeatherDisplay:10.37,2013-08-29 22:17:00,
2013-08-29 15:18:00,87.6,58.1,30.03,East,100,2.3,2.3,37,0.00,SCT,,0.00,WeatherDisplay:10.37,2013-08-29 22:18:00,
2013-08-29 15:19:00,87.6,58.9,30.04,East,88,2.3,2.3,38,0.00,SCT,,0.00,WeatherDisplay:10.37,2013-08-29 22:19:00,
2013-08-29 15:20:00,87.6,58.9,30.03,East,87,2.3,2.3,38,0.00,SCT,,0.00,WeatherDisplay:10.37,2013-08-29 22:20:00,
2013-08-29 15:21:00,87.7,59.7,30.03,NE,51,4.6,4.6,39,0.00,SCT,,0.00,WeatherDisplay:10.37,2013-08-29 22:21:00,
2013-08-29 15:22:00,87.7,59.7,30.04,NE,55,2.3,2.3,39,0.00,SCT,,0.00,WeatherDisplay:10.37,2013-08-29 22:22:00,
2013-08-29 15:23:00,87.6,59.6,30.04,South,178,2.3,2.3,39,0.00,SCT,,0.00,WeatherDisplay:10.37,2013-08-29 22:23:00,
2013-08-29 15:24:00,87.7,59.7,30.03,SE,130,1.2,1.2,39,0.00,SCT,,0.00,WeatherDisplay:10.37,2013-08-29 22:24:00,
2013-08-29 15:25:00,87.7,59.7,30.03,ENE,74,4.0,4.0,39,0.00,SCT,,0.00,WeatherDisplay:10.37,2013-08-29 22:25:00,
2013-08-29 15:26:00,87.8,59.8,30.03,ENE,61,3.5,3.5,39,0.00,SCT,,0.00,WeatherDisplay:10.37,2013-08-29 22:26:00,
2013-08-29 15:27:00,87.8,59.0,30.03,ENE,72,3.5,3.5,38,0.00,SCT,,0.00,WeatherDisplay:10.37,2013-08-29 22:27:00,
2013-08-29 15:28:00,87.9,59.1,30.03,ENE,72,3.5,3.5,38,0.00,SCT,,0.00,WeatherDisplay:10.37,2013-08-29 22:28:00,
2013-08-29 15:30:00,87.9,59.8,30.03,East,95,2.3,2.3,39,0.00,SCT,,0.00,WeatherDisplay:10.37,2013-08-29 22:30:00,
2013-08-29 15:31:00,88.0,59.2,30.03,SE,143,2.3,2.3,38,0.00,SCT,,0.00,WeatherDisplay:10.37,2013-08-29 22:31:00,
2013-08-29 15:32:00,88.0,59.2,30.03,South,176,2.3,2.3,38,0.00,SCT,,0.00,WeatherDisplay:10.37,2013-08-29 22:32:00,
2013-08-29 15:35:00,88.0,59.2,30.03,SE,125,4.6,4.6,38,0.00,SCT,,0.00,WeatherDisplay:10.37,2013-08-29 22:35:00,
2013-08-29 15:36:00,88.0,59.9,30.03,SE,128,4.6,4.6,39,0.00,SCT,,0.00,WeatherDisplay:10.37,2013-08-29 22:36:00,
2013-08-29 15:37:00,88.0,59.9,30.03,SSW,197,3.5,3.5,39,0.00,SCT,,0.00,WeatherDisplay:10.37,2013-08-29 22:37:00,
2013-08-29 15:38:00,88.0,59.9,30.03,SSE,162,3.5,3.5,39,0.00,SCT,,0.00,WeatherDisplay:10.37,2013-08-29 22:38:00,
2013-08-29 15:40:00,88.0,59.9,30.03,SSE,151,4.6,4.6,39,0.00,SCT,,0.00,WeatherDisplay:10.37,2013-08-29 22:40:00,
2013-08-29 15:41:00,88.0,59.9,30.03,ESE,120,4.6,4.6,39,0.00,SCT,,0.00,WeatherDisplay:10.37,2013-08-29 22:41:00,
2013-08-29 15:42:00,88.0,59.9,30.03,East,93,2.3,2.3,39,0.00,SCT,,0.00,WeatherDisplay:10.37,2013-08-29 22:42:00,
2013-08-29 15:43:00,87.9,59.8,30.03,ENE,63,3.5,3.5,39,0.00,SCT,,0.00,WeatherDisplay:10.37,2013-08-29 22:43:00,
2013-08-29 15:44:00,87.9,59.8,30.03,East,89,4.6,4.6,39,0.00,SCT,,0.00,WeatherDisplay:10.37,2013-08-29 22:44:00,
2013-08-29 15:45:00,87.9,59.8,30.03,SE,145,4.6,4.6,39,0.00,SCT,,0.00,WeatherDisplay:10.37,2013-08-29 22:45:00,
2013-08-29 15:46:00,87.8,59.8,30.03,South,178,3.5,3.5,39,0.00,SCT,,0.00,WeatherDisplay:10.37,2013-08-29 22:46:00,
2013-08-29 15:47:00,87.9,59.8,30.03,South,176,4.6,4.6,39,0.00,SCT,,0.00,WeatherDisplay:10.37,2013-08-29 22:47:00,
2013-08-29 15:49:00,87.9,59.8,30.03,SSE,167,4.6,4.6,39,0.00,SCT,,0.00,WeatherDisplay:10.37,2013-08-29 22:49:00,
2013-08-29 15:50:00,87.9,59.1,30.03,SE,131,3.5,3.5,38,0.00,SCT,,0.00,WeatherDisplay:10.37,2013-08-29 22:50:00,
2013-08-29 15:52:00,87.8,59.0,30.03,East,100,9.2,9.2,38,0.00,SCT,,0.00,WeatherDisplay:10.37,2013-08-29 22:52:00,
2013-08-29 15:53:00,87.8,59.8,30.03,SSW,202,3.5,3.5,39,0.00,SCT,,0.00,WeatherDisplay:10.37,2013-08-29 22:53:00,
2013-08-29 15:54:00,87.7,58.9,30.03,SSE,157,1.2,1.2,38,0.00,SCT,,0.00,WeatherDisplay:10.37,2013-08-29 22:54:00,
2013-08-29 15:55:00,87.6,59.6,30.03,SE,132,1.2,0.0,39,0.00,SCT,,0.00,WeatherDisplay:10.37,2013-08-29 22:55:00,
2013-08-29 15:57:00,87.5,59.5,30.03,South,185,2.3,2.3,39,0.00,SCT,,0.00,WeatherDisplay:10.37,2013-08-29 22:57:00,
2013-08-29 15:58:00,87.5,59.5,30.03,SSW,209,2.3,2.3,39,0.00,SCT,,0.00,WeatherDisplay:10.37,2013-08-29 22:58:00,
2013-08-29 15:59:00,87.4,59.4,30.03,SE,140,5.0,5.0,39,0.00,SCT,,0.00,WeatherDisplay:10.37,2013-08-29 22:59:00,
2013-08-29 16:02:00,87.3,60.0,30.03,SSE,148,1.2,1.2,40,0.00,SCT,,0.00,WeatherDisplay:10.37,2013-08-29 23:02:00,
2013-08-29 16:03:00,87.2,59.9,30.03,WSW,249,2.3,2.3,40,0.00,SCT,,0.00,WeatherDisplay:10.37,2013-08-29 23:03:00,
2013-08-29 16:04:00,87.2,59.9,30.03,SW,219,3.0,3.0,40,0.00,SCT,,0.00,WeatherDisplay:10.37,2013-08-29 23:04:00,
2013-08-29 16:07:00,87.1,59.8,30.02,SE,124,3.5,3.5,40,0.00,SCT,,0.00,WeatherDisplay:10.37,2013-08-29 23:07:00,
2013-08-29 16:08:00,87.1,59.8,30.02,SE,124,3.5,3.5,40,0.00,SCT,,0.00,WeatherDisplay:10.37,2013-08-29 23:08:00,
2013-08-29 16:10:00,87.0,59.8,30.03,SSE,153,0.0,5.0,40,0.00,SCT,,0.00,WeatherDisplay:10.37,2013-08-29 23:10:00,
2013-08-29 16:13:00,86.9,59.7,30.03,ESE,122,8.1,8.1,40,0.00,SCT,,0.00,WeatherDisplay:10.37,2013-08-29 23:13:00,
2013-08-29 16:14:00,86.9,59.7,30.03,SE,146,4.6,4.6,40,0.00,SCT,,0.00,WeatherDisplay:10.37,2013-08-29 23:14:00,
2013-08-29 16:15:00,86.8,59.6,30.03,SW,223,2.3,2.3,40,0.00,SCT,,0.00,WeatherDisplay:10.37,2013-08-29 23:15:00,
2013-08-29 16:16:00,86.8,59.6,30.03,SW,221,3.0,3.0,40,0.00,SCT,,0.00,WeatherDisplay:10.37,2013-08-29 23:16:00,
2013-08-29 16:18:00,86.7,59.5,30.03,ESE,120,9.2,9.2,40,0.00,SCT,,0.00,WeatherDisplay:10.37,2013-08-29 23:18:00,
2013-08-29 16:20:00,86.6,60.1,30.03,SSW,193,4.0,4.0,41,0.00,SCT,,0.00,WeatherDisplay:10.37,2013-08-29 23:20:00,
2013-08-29 16:21:00,86.6,60.1,30.03,SW,226,4.0,4.0,41,0.00,SCT,,0.00,WeatherDisplay:10.37,2013-08-29 23:21:00,
2013-08-29 16:22:00,86.5,59.3,30.03,WSW,237,3.5,3.5,40,0.00,SCT,,0.00,WeatherDisplay:10.37,2013-08-29 23:22:00,
2013-08-29 16:23:00,86.5,59.3,30.03,SSE,160,3.5,3.5,40,0.00,SCT,,0.00,WeatherDisplay:10.37,2013-08-29 23:23:00,
2013-08-29 16:24:00,86.5,59.3,30.03,South,187,3.5,3.5,40,0.00,SCT,,0.00,WeatherDisplay:10.37,2013-08-29 23:24:00,
2013-08-29 16:26:00,86.6,60.1,30.03,SE,132,4.0,4.0,41,0.00,SCT,,0.00,WeatherDisplay:10.37,2013-08-29 23:26:00,
2013-08-29 16:27:00,86.5,59.3,30.02,SSE,147,3.5,3.5,40,0.00,SCT,,0.00,WeatherDisplay:10.37,2013-08-29 23:27:00,
2013-08-29 16:29:00,86.5,60.0,30.02,SSE,148,5.8,5.8,41,0.00,SCT,,0.00,WeatherDisplay:10.37,2013-08-29 23:29:00,
2013-08-29 16:30:00,86.5,60.0,30.02,South,171,1.0,6.0,41,0.00,SCT,,0.00,WeatherDisplay:10.37,2013-08-29 23:30:00,
2013-08-29 16:31:00,86.6,59.4,30.02,ESE,122,4.6,4.6,40,0.00,SCT,,0.00,WeatherDisplay:10.37,2013-08-29 23:31:00,
2013-08-29 16:33:00,86.6,59.4,30.02,ESE,108,5.8,5.8,40,0.00,SCT,,0.00,WeatherDisplay:10.37,2013-08-29 23:33:00,
2013-08-29 16:34:00,86.6,60.1,30.02,SSE,162,5.8,5.8,41,0.00,SCT,,0.00,WeatherDisplay:10.37,2013-08-29 23:34:00,
2013-08-29 16:35:00,86.6,59.4,30.02,SSE,149,1.0,6.0,40,0.00,SCT,,0.00,WeatherDisplay:10.37,2013-08-29 23:35:00,
2013-08-29 16:36:00,86.6,60.1,30.02,SE,128,4.6,4.6,41,0.00,SCT,,0.00,WeatherDisplay:10.37,2013-08-29 23:36:00,
2013-08-29 16:40:00,86.7,59.5,30.02,NNE,14,1.2,1.2,40,0.00,SCT,,0.00,WeatherDisplay:10.37,2013-08-29 23:40:00,
2013-08-29 16:41:00,86.7,60.2,30.02,West,259,1.2,1.2,41,0.00,SCT,,0.00,WeatherDisplay:10.37,2013-08-29 23:41:00,
2013-08-29 16:42:00,86.6,59.4,30.02,WSW,248,1.2,0.0,40,0.00,SCT,,0.00,WeatherDisplay:10.37,2013-08-29 23:42:00,
2013-08-29 16:44:00,86.5,60.0,30.02,SE,135,2.0,2.0,41,0.00,SCT,,0.00,WeatherDisplay:10.37,2013-08-29 23:44:00,
2013-08-29 16:45:00,86.4,59.9,30.02,SSW,200,4.6,4.6,41,0.00,SCT,,0.00,WeatherDisplay:10.37,2013-08-29 23:45:00,
2013-08-29 16:47:00,86.5,60.7,30.02,South,179,3.5,3.5,42,0.00,SCT,,0.00,WeatherDisplay:10.37,2013-08-29 23:47:00,
2013-08-29 16:48:00,86.5,60.0,30.02,WSW,243,1.2,1.2,41,0.00,SCT,,0.00,WeatherDisplay:10.37,2013-08-29 23:48:00,
2013-08-29 16:49:00,86.6,60.1,30.02,SE,137,2.3,2.3,41,0.00,SCT,,0.00,WeatherDisplay:10.37,2013-08-29 23:49:00,
2013-08-29 16:51:00,86.6,60.1,30.02,ESE,107,4.6,4.6,41,0.00,SCT,,0.00,WeatherDisplay:10.37,2013-08-29 23:51:00,
2013-08-29 16:52:00,86.6,60.1,30.02,WNW,289,1.2,1.2,41,0.00,SCT,,0.00,WeatherDisplay:10.37,2013-08-29 23:52:00,
2013-08-29 16:53:00,86.6,60.1,30.02,SE,132,6.0,6.0,41,0.00,SCT,,0.00,WeatherDisplay:10.37,2013-08-29 23:53:00,
2013-08-29 16:56:00,86.5,60.0,30.02,SE,143,5.0,5.0,41,0.00,SCT,,0.00,WeatherDisplay:10.37,2013-08-29 23:56:00,
2013-08-29 16:57:00,86.5,60.0,30.02,SE,142,3.5,3.5,41,0.00,SCT,,0.00,WeatherDisplay:10.37,2013-08-29 23:57:00,
2013-08-29 16:59:00,86.3,59.8,30.02,East,90,2.3,2.3,41,0.00,SCT,,0.00,WeatherDisplay:10.37,2013-08-29 23:59:00,
2013-08-29 17:00:00,86.3,59.8,30.02,SE,133,3.0,3.0,41,0.00,SCT,,0.00,WeatherDisplay:10.37,2013-08-30 00:00:00,
2013-08-29 17:02:00,86.2,59.7,30.01,SSW,195,6.9,6.9,41,0.00,SCT,,0.00,WeatherDisplay:10.37,2013-08-30 00:02:00,
2013-08-29 17:03:00,86.2,60.4,30.02,East,82,6.9,6.9,42,0.00,SCT,,0.00,WeatherDisplay:10.37,2013-08-30 00:03:00,
2013-08-29 17:05:00,86.2,59.7,30.01,SSW,209,3.5,3.5,41,0.00,SCT,,0.00,WeatherDisplay:10.37,2013-08-30 00:05:00,
2013-08-29 17:06:00,86.2,59.7,30.01,SE,132,3.0,3.0,41,0.00,SCT,,0.00,WeatherDisplay:10.37,2013-08-30 00:06:00,
2013-08-29 17:08:00,86.1,60.3,30.01,SE,143,3.5,0.0,42,0.00,SCT,,0.00,WeatherDisplay:10.37,2013-08-30 00:08:00,
2013-08-29 17:10:00,86.1,60.3,30.01,SSE,147,6.9,6.9,42,0.00,SCT,,0.00,WeatherDisplay:10.37,2013-08-30 00:10:00,
2013-08-29 17:11:00,86.0,60.2,30.01,SSW,209,6.9,6.9,42,0.00,SCT,,0.00,WeatherDisplay:10.37,2013-08-30 00:11:00,
2013-08-29 17:13:00,85.9,60.1,30.01,SE,141,2.3,2.3,42,0.00,SCT,,0.00,WeatherDisplay:10.37,2013-08-30 00:13:00,
2013-08-29 17:14:00,85.9,60.1,30.01,SE,141,2.3,2.3,42,0.00,SCT,,0.00,WeatherDisplay:10.37,2013-08-30 00:14:00,
2013-08-29 17:16:00,85.8,60.1,30.01,SSE,147,4.6,4.6,42,0.00,SCT,,0.00,WeatherDisplay:10.37,2013-08-30 00:16:00,
2013-08-29 17:17:00,85.7,60.0,30.01,SSE,165,2.3,2.3,42,0.00,SCT,,0.00,WeatherDisplay:10.37,2013-08-30 00:17:00,
2013-08-29 17:18:00,85.7,60.0,30.01,ENE,59,3.5,3.5,42,0.00,SCT,,0.00,WeatherDisplay:10.37,2013-08-30 00:18:00,
2013-08-29 17:19:00,85.6,59.9,30.01,SE,144,8.1,8.1,42,0.00,SCT,,0.00,WeatherDisplay:10.37,2013-08-30 00:19:00,
2013-08-29 17:20:00,85.7,59.9,30.01,SSE,149,1.0,8.0,42,0.00,SCT,,0.00,WeatherDisplay:10.37,2013-08-30 00:20:00,
2013-08-29 17:21:00,85.6,60.5,30.01,SSW,194,2.3,2.3,43,0.00,SCT,,0.00,WeatherDisplay:10.37,2013-08-30 00:21:00,
2013-08-29 17:22:00,85.5,60.4,30.01,SSW,208,1.2,1.2,43,0.00,SCT,,0.00,WeatherDisplay:10.37,2013-08-30 00:22:00,
2013-08-29 17:23:00,85.5,60.4,30.01,ESE,109,4.6,4.6,43,0.00,SCT,,0.00,WeatherDisplay:10.37,2013-08-30 00:23:00,
2013-08-29 17:24:00,85.5,60.4,30.01,SSW,197,4.6,4.6,43,0.00,SCT,,0.00,WeatherDisplay:10.37,2013-08-30 00:24:00,
2013-08-29 17:25:00,85.4,60.4,30.01,SW,224,5.8,5.8,43,0.00,SCT,,0.00,WeatherDisplay:10.37,2013-08-30 00:25:00,
2013-08-29 17:26:00,85.3,60.3,30.01,SE,146,4.6,4.6,43,0.00,SCT,,0.00,WeatherDisplay:10.37,2013-08-30 00:26:00,
2013-08-29 17:27:00,85.3,60.3,30.01,ESE,109,6.9,6.9,43,0.00,SCT,,0.00,WeatherDisplay:10.37,2013-08-30 00:27:00,
2013-08-29 17:29:00,85.2,60.2,30.01,SE,132,4.6,4.6,43,0.00,SCT,,0.00,WeatherDisplay:10.37,2013-08-30 00:29:00,
2013-08-29 17:30:00,85.2,60.2,30.01,ENE,70,4.6,4.6,43,0.00,SCT,,0.00,WeatherDisplay:10.37,2013-08-30 00:30:00,
2013-08-29 17:32:00,85.1,60.1,30.01,South,183,6.9,6.9,43,0.00,SCT,,0.00,WeatherDisplay:10.37,2013-08-30 00:32:00,
2013-08-29 17:35:00,84.9,60.6,30.01,SE,141,6.9,6.9,44,0.00,SCT,,0.00,WeatherDisplay:10.37,2013-08-30 00:35:00,
2013-08-29 17:36:00,84.9,59.9,30.01,SE,128,6.9,6.9,43,0.00,SCT,,0.00,WeatherDisplay:10.37,2013-08-30 00:36:00,
2013-08-29 17:37:00,84.8,59.8,30.01,South,169,5.8,5.8,43,0.00,SCT,,0.00,WeatherDisplay:10.37,2013-08-30 00:37:00,
2013-08-29 17:40:00,84.8,60.5,30.01,East,86,2.3,2.3,44,0.00,SCT,,0.00,WeatherDisplay:10.37,2013-08-30 00:40:00,
2013-08-29 17:41:00,84.7,60.4,30.01,SSE,164,2.0,2.0,44,0.00,SCT,,0.00,WeatherDisplay:10.37,2013-08-30 00:41:00,
2013-08-29 17:42:00,84.7,60.4,30.01,South,181,3.5,3.5,44,0.00,SCT,,0.00,WeatherDisplay:10.37,2013-08-30 00:42:00,
2013-08-29 17:44:00,84.6,60.3,30.01,South,181,3.5,3.5,44,0.00,SCT,,0.00,WeatherDisplay:10.37,2013-08-30 00:44:00,
2013-08-29 17:45:00,84.6,60.3,30.01,South,181,1.2,1.2,44,0.00,SCT,,0.00,WeatherDisplay:10.37,2013-08-30 00:45:00,
2013-08-29 17:47:00,84.5,60.2,30.01,East,95,4.0,4.0,44,0.00,SCT,,0.00,WeatherDisplay:10.37,2013-08-30 00:47:00,
2013-08-29 17:49:00,84.4,60.7,30.01,SSE,150,3.5,3.5,45,0.00,SCT,,0.00,WeatherDisplay:10.37,2013-08-30 00:49:00,
2013-08-29 17:50:00,84.4,60.1,30.01,ESE,111,3.5,3.5,44,0.00,SCT,,0.00,WeatherDisplay:10.37,2013-08-30 00:50:00,
2013-08-29 17:51:00,84.4,60.1,30.01,SE,140,3.5,3.5,44,0.00,SCT,,0.00,WeatherDisplay:10.37,2013-08-30 00:51:00,
2013-08-29 17:52:00,84.4,60.1,30.01,SSE,150,8.1,8.1,44,0.00,SCT,,0.00,WeatherDisplay:10.37,2013-08-30 00:52:00,
2013-08-29 17:55:00,84.4,60.1,30.01,SW,233,4.6,4.6,44,0.00,SCT,,0.00,WeatherDisplay:10.37,2013-08-30 00:55:00,
2013-08-29 17:56:00,84.4,60.1,30.01,ESE,117,4.6,4.6,44,0.00,SCT,,0.00,WeatherDisplay:10.37,2013-08-30 00:56:00,
2013-08-29 17:57:00,84.4,60.7,30.01,East,80,2.3,2.3,45,0.00,SCT,,0.00,WeatherDisplay:10.37,2013-08-30 00:57:00,
2013-08-29 18:01:00,84.1,60.5,30.01,SE,135,8.1,8.1,45,0.00,SCT,,0.00,WeatherDisplay:10.37,2013-08-30 01:01:00,
2013-08-29 18:02:00,84.1,60.5,30.01,SE,140,5.0,5.0,45,0.00,SCT,,0.00,WeatherDisplay:10.37,2013-08-30 01:02:00,
2013-08-29 18:03:00,84.1,60.5,30.01,SSE,162,6.9,6.9,45,0.00,SCT,,0.00,WeatherDisplay:10.37,2013-08-30 01:03:00,
2013-08-29 18:06:00,83.9,60.3,30.01,ESE,122,3.5,3.5,45,0.00,SCT,,0.00,WeatherDisplay:10.37,2013-08-30 01:06:00,
2013-08-29 18:07:00,83.9,60.3,30.01,ESE,122,3.5,3.5,45,0.00,SCT,,0.00,WeatherDisplay:10.37,2013-08-30 01:07:00,
2013-08-29 18:09:00,83.8,60.2,30.01,SE,125,6.0,6.0,45,0.00,SCT,,0.00,WeatherDisplay:10.37,2013-08-30 01:09:00,
2013-08-29 18:10:00,83.8,60.1,30.01,SE,136,1.0,6.0,45,0.00,SCT,,0.00,WeatherDisplay:10.37,2013-08-30 01:10:00,
2013-08-29 18:11:00,83.6,60.6,30.01,SSE,163,2.3,2.3,46,0.00,SCT,,0.00,WeatherDisplay:10.37,2013-08-30 01:11:00,
2013-08-29 18:12:00,83.6,60.6,30.01,SE,143,3.0,3.0,46,0.00,SCT,,0.00,WeatherDisplay:10.37,2013-08-30 01:12:00,
2013-08-29 18:13:00,83.6,60.6,30.01,ESE,123,2.3,2.3,46,0.00,SCT,,0.00,WeatherDisplay:10.37,2013-08-30 01:13:00,
2013-08-29 18:14:00,83.5,60.5,30.01,SE,125,5.0,5.0,46,0.00,SCT,,0.00,WeatherDisplay:10.37,2013-08-30 01:14:00,
2013-08-29 18:15:00,83.5,60.5,30.01,ESE,116,4.6,4.6,46,0.00,SCT,,0.00,WeatherDisplay:10.37,2013-08-30 01:15:00,
2013-08-29 18:17:00,83.3,60.4,30.01,East,92,3.5,3.5,46,0.00,SCT,,0.00,WeatherDisplay:10.37,2013-08-30 01:17:00,
2013-08-29 18:18:00,83.3,60.4,30.01,ESE,120,8.0,8.0,46,0.00,SCT,,0.00,WeatherDisplay:10.37,2013-08-30 01:18:00,
2013-08-29 18:20:00,83.3,60.4,30.01,SSE,152,8.1,8.1,46,0.00,SCT,,0.00,WeatherDisplay:10.37,2013-08-30 01:20:00,
2013-08-29 18:21:00,83.2,60.3,30.01,SE,136,8.1,8.1,46,0.00,SCT,,0.00,WeatherDisplay:10.37,2013-08-30 01:21:00,
2013-08-29 18:23:00,83.2,60.3,30.01,SSW,203,4.6,4.6,46,0.00,SCT,,0.00,WeatherDisplay:10.37,2013-08-30 01:23:00,
2013-08-29 18:24:00,83.2,60.3,30.00,SE,141,3.5,3.5,46,0.00,SCT,,0.00,WeatherDisplay:10.37,2013-08-30 01:24:00,
2013-08-29 18:25:00,83.1,60.8,30.01,SE,134,2.3,2.3,47,0.00,SCT,,0.00,WeatherDisplay:10.37,2013-08-30 01:25:00,
2013-08-29 18:26:00,83.1,60.8,30.00,SSE,157,6.9,6.9,47,0.00,SCT,,0.00,WeatherDisplay:10.37,2013-08-30 01:26:00,
2013-08-29 18:28:00,82.9,60.6,30.00,ESE,121,4.6,4.6,47,0.00,SCT,,0.00,WeatherDisplay:10.37,2013-08-30 01:28:00,
2013-08-29 18:29:00,82.9,60.6,30.01,SE,124,4.6,4.6,47,0.00,SCT,,0.00,WeatherDisplay:10.37,2013-08-30 01:29:00,
2013-08-29 18:30:00,82.8,60.5,30.00,ESE,114,2.3,2.3,47,0.00,SCT,,0.00,WeatherDisplay:10.37,2013-08-30 01:30:00,
2013-08-29 18:31:00,82.8,60.5,30.01,SE,126,5.0,5.0,47,0.00,SCT,,0.00,WeatherDisplay:10.37,2013-08-30 01:31:00,
2013-08-29 18:33:00,82.5,60.8,30.01,SE,137,3.5,3.5,48,0.00,SCT,,0.00,WeatherDisplay:10.37,2013-08-30 01:33:00,
2013-08-29 18:34:00,82.5,60.8,30.01,SE,136,5.0,5.0,48,0.00,SCT,,0.00,WeatherDisplay:10.37,2013-08-30 01:34:00,
2013-08-29 18:35:00,82.4,60.1,30.01,SE,132,4.6,4.6,47,0.00,SCT,,0.00,WeatherDisplay:10.37,2013-08-30 01:35:00,
2013-08-29 18:37:00,82.3,60.6,30.01,SE,131,5.0,5.0,48,0.00,SCT,,0.00,WeatherDisplay:10.37,2013-08-30 01:37:00,
2013-08-29 18:38:00,82.2,60.6,30.01,ESE,113,4.6,4.6,48,0.00,SCT,,0.00,WeatherDisplay:10.37,2013-08-30 01:38:00,
2013-08-29 18:39:00,82.1,60.5,30.01,SW,222,2.3,2.3,48,0.00,SCT,,0.00,WeatherDisplay:10.37,2013-08-30 01:39:00,
2013-08-29 18:40:00,82.1,61.0,30.01,South,173,3.5,3.5,49,0.00,SCT,,0.00,WeatherDisplay:10.37,2013-08-30 01:40:00,
2013-08-29 18:42:00,82.1,61.0,30.00,SSE,164,3.5,3.5,49,0.00,SCT,,0.00,WeatherDisplay:10.37,2013-08-30 01:42:00,
2013-08-29 18:43:00,82.0,61.0,30.00,SSW,208,3.5,3.5,49,0.00,SCT,,0.00,WeatherDisplay:10.37,2013-08-30 01:43:00,
2013-08-29 18:44:00,81.9,60.9,30.01,SSW,208,3.5,3.5,49,0.00,SCT,,0.00,WeatherDisplay:10.37,2013-08-30 01:44:00,
2013-08-29 18:46:00,81.7,60.7,30.01,SSE,150,4.0,4.0,49,0.00,SCT,,0.00,WeatherDisplay:10.37,2013-08-30 01:46:00,
2013-08-29 18:47:00,81.7,60.7,30.01,SE,135,6.0,6.0,49,0.00,SCT,,0.00,WeatherDisplay:10.37,2013-08-30 01:47:00,
2013-08-29 18:49:00,81.5,60.5,30.01,SE,141,1.2,1.2,49,0.00,SCT,,0.00,WeatherDisplay:10.37,2013-08-30 01:49:00,
2013-08-29 18:50:00,81.5,60.5,30.00,SE,141,1.2,1.2,49,0.00,SCT,,0.00,WeatherDisplay:10.37,2013-08-30 01:50:00,
2013-08-29 18:52:00,81.4,60.4,30.01,SSE,157,0.0,0.4,49,0.00,SCT,,0.00,WeatherDisplay:10.37,2013-08-30 01:52:00,
2013-08-29 18:53:00,81.4,60.4,30.01,SSW,204,2.3,2.3,49,0.00,SCT,,0.00,WeatherDisplay:10.37,2013-08-30 01:53:00,
2013-08-29 18:54:00,81.2,60.8,30.01,NE,45,2.3,2.3,50,0.00,SCT,,0.00,WeatherDisplay:10.37,2013-08-30 01:54:00,
2013-08-29 18:55:00,81.2,60.8,30.01,SE,143,1.2,1.2,50,0.00,SCT,,0.00,WeatherDisplay:10.37,2013-08-30 01:55:00,
2013-08-29 18:57:00,81.1,60.7,30.01,South,175,5.8,5.8,50,0.00,SCT,,0.00,WeatherDisplay:10.37,2013-08-30 01:57:00,
2013-08-29 18:58:00,81.1,60.7,30.01,SE,130,5.8,5.8,50,0.00,SCT,,0.00,WeatherDisplay:10.37,2013-08-30 01:58:00,
2013-08-29 18:59:00,80.8,60.4,30.01,WSW,243,1.2,1.2,50,0.00,SCT,,0.00,WeatherDisplay:10.37,2013-08-30 01:59:00,
2013-08-29 19:00:00,80.6,60.2,30.01,SSE,161,3.5,3.5,50,0.00,SCT,,0.00,WeatherDisplay:10.37,2013-08-30 02:00:00,
2013-08-29 19:02:00,80.4,60.6,30.01,SSW,209,3.5,3.5,51,0.00,SCT,,0.00,WeatherDisplay:10.37,2013-08-30 02:02:00,
2013-08-29 19:04:00,80.4,60.6,30.01,SE,128,3.5,3.5,51,0.00,SCT,,0.00,WeatherDisplay:10.37,2013-08-30 02:04:00,
2013-08-29 19:05:00,80.2,60.4,30.00,SE,133,2.3,2.3,51,0.00,SCT,,0.00,WeatherDisplay:10.37,2013-08-30 02:05:00,
2013-08-29 19:06:00,80.1,60.3,30.00,SE,124,2.3,2.3,51,0.00,SCT,,0.00,WeatherDisplay:10.37,2013-08-30 02:06:00,
2013-08-29 19:07:00,79.9,60.2,30.00,SW,218,4.6,4.6,51,0.00,SCT,,0.00,WeatherDisplay:10.37,2013-08-30 02:07:00,
2013-08-29 19:08:00,79.9,60.7,30.00,SW,219,4.6,4.6,52,0.00,SCT,,0.00,WeatherDisplay:10.37,2013-08-30 02:08:00,
2013-08-29 19:09:00,79.8,60.6,30.00,SW,219,3.5,0.0,52,0.00,SCT,,0.00,WeatherDisplay:10.37,2013-08-30 02:09:00,
2013-08-29 19:10:00,79.7,60.5,30.00,East,79,1.2,1.2,52,0.00,SCT,,0.00,WeatherDisplay:10.37,2013-08-30 02:10:00,
2013-08-29 19:13:00,79.6,61.0,30.00,SSW,195,4.6,4.6,53,0.00,SCT,,0.00,WeatherDisplay:10.37,2013-08-30 02:13:00,
2013-08-29 19:14:00,79.5,60.9,30.00,ESE,106,1.2,1.2,53,0.00,SCT,,0.00,WeatherDisplay:10.37,2013-08-30 02:14:00,
2013-08-29 19:15:00,79.4,60.8,30.00,SE,130,2.3,2.3,53,0.00,SCT,,0.00,WeatherDisplay:10.37,2013-08-30 02:15:00,
2013-08-29 19:18:00,79.4,60.8,30.00,ESE,110,1.2,1.2,53,0.00,SCT,,0.00,WeatherDisplay:10.37,2013-08-30 02:18:00,
2013-08-29 19:19:00,79.2,60.6,30.00,SW,226,1.2,1.2,53,0.00,SCT,,0.00,WeatherDisplay:10.37,2013-08-30 02:19:00,
2013-08-29 19:20:00,79.2,60.6,30.01,SSW,212,2.0,2.0,53,0.00,SCT,,0.00,WeatherDisplay:10.37,2013-08-30 02:20:00,
2013-08-29 19:21:00,79.1,61.0,30.00,SE,126,3.5,3.5,54,0.00,SCT,,0.00,WeatherDisplay:10.37,2013-08-30 02:21:00,
2013-08-29 19:23:00,78.9,60.8,30.01,SSE,162,3.5,3.5,54,0.00,SCT,,0.00,WeatherDisplay:10.37,2013-08-30 02:23:00,
2013-08-29 19:25:00,78.7,60.7,30.01,NNE,25,2.3,2.3,54,0.00,SCT,,0.00,WeatherDisplay:10.37,2013-08-30 02:25:00,
2013-08-29 19:27:00,78.5,60.5,30.01,SSE,168,4.6,4.6,54,0.00,SCT,,0.00,WeatherDisplay:10.37,2013-08-30 02:27:00,
2013-08-29 19:29:00,78.3,60.3,30.01,SE,126,4.6,4.6,54,0.00,SCT,,0.00,WeatherDisplay:10.37,2013-08-30 02:29:00,
2013-08-29 19:30:00,78.2,60.7,30.01,ENE,62,3.5,3.5,55,0.00,SCT,,0.00,WeatherDisplay:10.37,2013-08-30 02:30:00,
2013-08-29 19:32:00,78.0,60.5,30.01,ENE,58,1.2,1.2,55,0.00,SCT,,0.00,WeatherDisplay:10.37,2013-08-30 02:32:00,
2013-08-29 19:33:00,77.9,60.4,30.01,SE,145,2.3,2.3,55,0.00,SCT,,0.00,WeatherDisplay:10.37,2013-08-30 02:33:00,
2013-08-29 19:34:00,77.8,60.8,30.01,SSE,158,3.5,3.5,56,0.00,SCT,,0.00,WeatherDisplay:10.37,2013-08-30 02:34:00,
2013-08-29 19:35:00,77.7,60.8,30.01,South,181,0.0,0.2,56,0.00,SCT,,0.00,WeatherDisplay:10.37,2013-08-30 02:35:00,
2013-08-29 19:37:00,77.4,60.5,30.01,SW,216,0.0,0.1,56,0.00,SCT,,0.00,WeatherDisplay:10.37,2013-08-30 02:37:00,
2013-08-29 19:38:00,77.3,60.4,30.01,SSW,211,2.0,2.0,56,0.00,SCT,,0.00,WeatherDisplay:10.37,2013-08-30 02:38:00,
2013-08-29 19:39:00,77.1,60.7,30.01,SSW,210,2.3,2.3,57,0.00,SCT,,0.00,WeatherDisplay:10.37,2013-08-30 02:39:00,
2013-08-29 19:40:00,76.9,60.5,30.01,SSW,202,2.0,2.0,57,0.00,SCT,,0.00,WeatherDisplay:10.37,2013-08-30 02:40:00,
2013-08-29 19:43:00,76.7,60.8,30.02,SSW,204,2.3,0.0,58,0.00,SCT,,0.00,WeatherDisplay:10.37,2013-08-30 02:43:00,
2013-08-29 19:44:00,76.6,60.7,30.02,SSW,204,1.0,1.0,58,0.00,SCT,,0.00,WeatherDisplay:10.37,2013-08-30 02:44:00,
2013-08-29 19:46:00,76.4,60.5,30.02,SSW,199,1.2,0.0,58,0.00,SCT,,0.00,WeatherDisplay:10.37,2013-08-30 02:46:00,
2013-08-29 19:48:00,76.1,60.2,30.02,SW,222,0.0,0.0,58,0.00,SCT,,0.00,WeatherDisplay:10.37,2013-08-30 02:48:00,
2013-08-29 19:49:00,76.0,60.2,30.02,SSW,208,0.0,0.0,58,0.00,SCT,,0.00,WeatherDisplay:10.37,2013-08-30 02:49:00,
2013-08-29 19:50:00,75.9,60.5,30.02,SSW,208,1.0,1.0,59,0.00,SCT,,0.00,WeatherDisplay:10.37,2013-08-30 02:50:00,
2013-08-29 19:51:00,75.9,60.5,30.02,SW,231,1.2,1.2,59,0.00,SCT,,0.00,WeatherDisplay:10.37,2013-08-30 02:51:00,
2013-08-29 19:54:00,75.4,60.5,30.02,SSW,205,3.5,3.5,60,0.00,SCT,,0.00,WeatherDisplay:10.37,2013-08-30 02:54:00,
2013-08-29 19:55:00,75.4,60.5,30.02,SW,218,0.0,3.0,60,0.00,SCT,,0.00,WeatherDisplay:10.37,2013-08-30 02:55:00,
2013-08-29 19:56:00,75.3,60.5,30.02,SSE,163,1.2,1.2,60,0.00,SCT,,0.00,WeatherDisplay:10.37,2013-08-30 02:56:00,
2013-08-29 19:57:00,75.2,60.4,30.02,SSE,163,1.2,1.2,60,0.00,SCT,,0.00,WeatherDisplay:10.37,2013-08-30 02:57:00,
2013-08-29 19:58:00,75.1,60.3,30.02,South,184,2.0,2.0,60,0.00,SCT,,0.00,WeatherDisplay:10.37,2013-08-30 02:58:00,
2013-08-29 20:00:00,75.1,60.7,30.02,South,186,3.5,3.5,61,0.00,SCT,,0.00,WeatherDisplay:10.37,2013-08-30 03:00:00,
2013-08-29 20:01:00,75.1,60.3,30.02,ESE,117,3.5,3.5,60,0.00,SCT,,0.00,WeatherDisplay:10.37,2013-08-30 03:01:00,
2013-08-29 20:02:00,75.1,60.7,30.02,NW,324,3.5,3.5,61,0.00,SCT,,0.00,WeatherDisplay:10.37,2013-08-30 03:02:00,
2013-08-29 20:03:00,75.1,60.3,30.02,WSW,254,2.3,2.3,60,0.00,SCT,,0.00,WeatherDisplay:10.37,2013-08-30 03:03:00,
2013-08-29 20:05:00,74.9,60.5,30.03,SSW,194,3.5,3.5,61,0.00,SCT,,0.00,WeatherDisplay:10.37,2013-08-30 03:05:00,
2013-08-29 20:07:00,74.7,60.4,30.02,SSW,194,0.0,0.0,61,0.00,SCT,,0.00,WeatherDisplay:10.37,2013-08-30 03:07:00,
2013-08-29 20:08:00,74.6,60.3,30.02,SSW,194,0.0,0.0,61,0.00,SCT,,0.00,WeatherDisplay:10.37,2013-08-30 03:08:00,
2013-08-29 20:09:00,74.5,60.2,30.02,SSW,194,0.0,0.0,61,0.00,SCT,,0.00,WeatherDisplay:10.37,2013-08-30 03:09:00,
2013-08-29 20:11:00,74.3,60.0,30.02,SSW,194,0.0,0.0,61,0.00,SCT,,0.00,WeatherDisplay:10.37,2013-08-30 03:11:00,
2013-08-29 20:12:00,74.1,60.2,30.03,SSW,194,1.2,0.0,62,0.00,SCT,,0.00,WeatherDisplay:10.37,2013-08-30 03:12:00,
2013-08-29 20:13:00,74.1,60.2,30.03,SSW,194,1.2,0.0,62,0.00,SCT,,0.00,WeatherDisplay:10.37,2013-08-30 03:13:00,
2013-08-29 20:15:00,74.0,60.2,30.03,WSW,239,1.2,1.2,62,0.00,SCT,,0.00,WeatherDisplay:10.37,2013-08-30 03:15:00,
2013-08-29 20:16:00,74.0,60.2,30.03,WSW,239,1.2,0.0,62,0.00,SCT,,0.00,WeatherDisplay:10.37,2013-08-30 03:16:00,
2013-08-29 20:18:00,74.0,60.2,30.03,WSW,239,0.0,0.2,62,0.00,SCT,,0.00,WeatherDisplay:10.37,2013-08-30 03:18:00,
2013-08-29 20:19:00,74.0,60.2,30.03,WSW,239,1.2,0.0,62,0.00,SCT,,0.00,WeatherDisplay:10.37,2013-08-30 03:19:00,
2013-08-29 20:21:00,74.0,60.2,30.03,WSW,239,1.2,0.0,62,0.00,SCT,,0.00,WeatherDisplay:10.37,2013-08-30 03:21:00,
2013-08-29 20:23:00,74.0,60.2,30.03,WSW,239,1.2,0.0,62,0.00,SCT,,0.00,WeatherDisplay:10.37,2013-08-30 03:23:00,
2013-08-29 20:24:00,74.0,60.2,30.03,WSW,239,0.0,0.0,62,0.00,SCT,,0.00,WeatherDisplay:10.37,2013-08-30 03:24:00,
2013-08-29 20:25:00,74.1,60.2,30.03,WSW,239,0.0,0.0,62,0.00,SCT,,0.00,WeatherDisplay:10.37,2013-08-30 03:25:00,
2013-08-29 20:26:00,74.1,60.2,30.03,WSW,239,1.2,0.0,62,0.00,SCT,,0.00,WeatherDisplay:10.37,2013-08-30 03:26:00,
2013-08-29 20:27:00,74.2,60.3,30.03,WSW,239,0.0,0.0,62,0.00,SCT,,0.00,WeatherDisplay:10.37,2013-08-30 03:27:00,
2013-08-29 20:28:00,74.2,60.3,30.03,WSW,239,0.0,0.0,62,0.00,SCT,,0.00,WeatherDisplay:10.37,2013-08-30 03:28:00,
2013-08-29 20:29:00,74.3,60.0,30.03,South,178,0.0,0.0,61,0.00,SCT,,0.00,WeatherDisplay:10.37,2013-08-30 03:29:00,
2013-08-29 20:31:00,74.3,60.0,30.03,ESE,109,2.3,2.3,61,0.00,SCT,,0.00,WeatherDisplay:10.37,2013-08-30 03:31:00,
2013-08-29 20:32:00,74.3,60.0,30.03,SE,128,1.2,1.2,61,0.00,SCT,,0.00,WeatherDisplay:10.37,2013-08-30 03:32:00,
2013-08-29 20:33:00,74.3,60.0,30.03,SE,139,4.0,4.0,61,0.00,SCT,,0.00,WeatherDisplay:10.37,2013-08-30 03:33:00,
2013-08-29 20:34:00,74.3,60.0,30.03,SE,133,4.0,4.0,61,0.00,SCT,,0.00,WeatherDisplay:10.37,2013-08-30 03:34:00,
2013-08-29 20:35:00,74.3,60.0,30.03,SE,133,3.5,3.5,61,0.00,SCT,,0.00,WeatherDisplay:10.37,2013-08-30 03:35:00,
2013-08-29 20:37:00,74.3,60.4,30.03,SE,128,4.6,4.6,62,0.00,SCT,,0.00,WeatherDisplay:10.37,2013-08-30 03:37:00,
2013-08-29 20:39:00,74.3,60.0,30.03,East,95,4.6,4.6,61,0.00,SCT,,0.00,WeatherDisplay:10.37,2013-08-30 03:39:00,
2013-08-29 20:41:00,74.2,60.3,30.03,SE,133,4.6,4.6,62,0.00,SCT,,0.00,WeatherDisplay:10.37,2013-08-30 03:41:00,
2013-08-29 20:42:00,74.1,60.2,30.03,SE,129,3.5,0.0,62,0.00,SCT,,0.00,WeatherDisplay:10.37,2013-08-30 03:42:00,
2013-08-29 20:43:00,74.1,60.2,30.03,SE,129,3.5,0.0,62,0.00,SCT,,0.00,WeatherDisplay:10.37,2013-08-30 03:43:00,
2013-08-29 20:44:00,74.1,60.2,30.04,SE,142,0.0,0.3,62,0.00,SCT,,0.00,WeatherDisplay:10.37,2013-08-30 03:44:00,
2013-08-29 20:45:00,74.1,60.2,30.03,ESE,122,0.0,5.0,62,0.00,SCT,,0.00,WeatherDisplay:10.37,2013-08-30 03:45:00,
2013-08-29 20:48:00,73.9,60.1,30.04,SE,124,3.5,3.5,62,0.00,SCT,,0.00,WeatherDisplay:10.37,2013-08-30 03:48:00,
2013-08-29 20:49:00,73.8,60.0,30.04,SSE,154,1.2,1.4,62,0.00,SCT,,0.00,WeatherDisplay:10.37,2013-08-30 03:49:00,
2013-08-29 20:50:00,73.8,60.0,30.04,SSE,154,1.2,0.0,62,0.00,SCT,,0.00,WeatherDisplay:10.37,2013-08-30 03:50:00,
2013-08-29 20:51:00,73.7,59.9,30.04,SSE,154,1.2,0.0,62,0.00,SCT,,0.00,WeatherDisplay:10.37,2013-08-30 03:51:00,
2013-08-29 20:54:00,73.5,60.1,30.04,South,175,1.2,1.2,63,0.00,SCT,,0.00,WeatherDisplay:10.37,2013-08-30 03:54:00,
2013-08-29 20:55:00,73.4,60.0,30.04,South,186,2.3,2.3,63,0.00,SCT,,0.00,WeatherDisplay:10.37,2013-08-30 03:55:00,
2013-08-29 20:56:00,73.4,60.0,30.04,ESE,122,8.1,8.1,63,0.00,SCT,,0.00,WeatherDisplay:10.37,2013-08-30 03:56:00,
2013-08-29 20:59:00,73.3,59.9,30.04,SSW,208,1.2,1.2,63,0.00,SCT,,0.00,WeatherDisplay:10.37,2013-08-30 03:59:00,
2013-08-29 21:00:00,73.3,59.9,30.04,SE,140,0.0,8.0,63,0.00,SCT,,0.00,WeatherDisplay:10.37,2013-08-30 04:00:00,
2013-08-29 21:01:00,73.3,59.9,30.04,East,86,2.3,2.3,63,0.00,SCT,,0.00,WeatherDisplay:10.37,2013-08-30 04:01:00,
2013-08-29 21:04:00,73.2,59.8,30.04,SE,140,1.0,1.0,63,0.00,SCT,,0.00,WeatherDisplay:10.37,2013-08-30 04:04:00,
2013-08-29 21:06:00,73.2,59.8,30.04,SE,135,2.3,2.3,63,0.00,SCT,,0.00,WeatherDisplay:10.37,2013-08-30 04:06:00,
2013-08-29 21:08:00,73.1,59.8,30.04,SE,135,0.0,0.0,63,0.00,SCT,,0.00,WeatherDisplay:10.37,2013-08-30 04:08:00,
2013-08-29 21:09:00,73.1,59.8,30.04,East,84,1.2,1.2,63,0.00,SCT,,0.00,WeatherDisplay:10.37,2013-08-30 04:09:00,
2013-08-29 21:11:00,73.0,59.7,30.04,South,189,0.0,0.0,63,0.00,SCT,,0.00,WeatherDisplay:10.37,2013-08-30 04:11:00,
2013-08-29 21:12:00,73.0,59.7,30.04,South,187,0.0,0.0,63,0.00,SCT,,0.00,WeatherDisplay:10.37,2013-08-30 04:12:00,
2013-08-29 21:14:00,72.9,59.6,30.04,SSE,167,1.2,0.0,63,0.00,SCT,,0.00,WeatherDisplay:10.37,2013-08-30 04:14:00,
2013-08-29 21:15:00,72.9,59.6,30.04,SSW,207,1.2,1.2,63,0.00,SCT,,0.00,WeatherDisplay:10.37,2013-08-30 04:15:00,
2013-08-29 21:16:00,72.9,59.6,30.04,SW,220,2.3,2.3,63,0.00,SCT,,0.00,WeatherDisplay:10.37,2013-08-30 04:16:00,
2013-08-29 21:17:00,72.9,59.6,30.04,SW,221,2.3,2.3,63,0.00,SCT,,0.00,WeatherDisplay:10.37,2013-08-30 04:17:00,
2013-08-29 21:18:00,72.9,59.6,30.04,SSE,153,1.0,1.0,63,0.00,SCT,,0.00,WeatherDisplay:10.37,2013-08-30 04:18:00,
2013-08-29 21:20:00,72.9,59.6,30.04,SSE,152,1.2,1.2,63,0.00,SCT,,0.00,WeatherDisplay:10.37,2013-08-30 04:20:00,
2013-08-29 21:21:00,72.9,59.6,30.04,SSE,158,1.2,1.2,63,0.00,SCT,,0.00,WeatherDisplay:10.37,2013-08-30 04:21:00,
2013-08-29 21:22:00,72.9,59.6,30.04,SSE,163,2.3,0.0,63,0.00,SCT,,0.00,WeatherDisplay:10.37,2013-08-30 04:22:00,
2013-08-29 21:23:00,72.8,59.5,30.04,SSE,163,0.0,0.0,63,0.00,SCT,,0.00,WeatherDisplay:10.37,2013-08-30 04:23:00,
2013-08-29 21:24:00,72.8,59.5,30.04,SSE,163,0.0,0.0,63,0.00,SCT,,0.00,WeatherDisplay:10.37,2013-08-30 04:24:00,
2013-08-29 21:25:00,72.7,59.8,30.04,SSE,163,0.0,0.0,64,0.00,SCT,,0.00,WeatherDisplay:10.37,2013-08-30 04:25:00,
2013-08-29 21:27:00,72.4,59.5,30.04,SSE,163,0.0,0.0,64,0.00,SCT,,0.00,WeatherDisplay:10.37,2013-08-30 04:27:00,
2013-08-29 21:28:00,72.4,59.5,30.04,SSE,163,0.0,0.0,64,0.00,SCT,,0.00,WeatherDisplay:10.37,2013-08-30 04:28:00,
2013-08-29 21:30:00,72.3,59.4,30.05,SSE,163,0.0,0.0,64,0.00,SCT,,0.00,WeatherDisplay:10.37,2013-08-30 04:30:00,
2013-08-29 21:33:00,72.0,59.6,30.05,SSE,164,0.0,0.0,65,0.00,SCT,,0.00,WeatherDisplay:10.37,2013-08-30 04:33:00,
2013-08-29 21:34:00,72.0,59.6,30.05,SSE,164,0.0,0.0,65,0.00,SCT,,0.00,WeatherDisplay:10.37,2013-08-30 04:34:00,
2013-08-29 21:35:00,71.9,59.5,30.05,South,182,0.0,0.1,65,0.00,SCT,,0.00,WeatherDisplay:10.37,2013-08-30 04:35:00,
2013-08-29 21:39:00,71.5,59.5,30.05,South,185,0.0,0.0,66,0.00,SCT,,0.00,WeatherDisplay:10.37,2013-08-30 04:39:00,
2013-08-29 21:40:00,71.3,59.4,30.05,South,185,0.0,0.0,66,0.00,SCT,,0.00,WeatherDisplay:10.37,2013-08-30 04:40:00,
2013-08-29 21:41:00,71.3,59.4,30.05,South,185,0.0,0.1,66,0.00,SCT,,0.00,WeatherDisplay:10.37,2013-08-30 04:41:00,
2013-08-29 21:45:00,71.1,59.6,30.05,ESE,121,4.6,4.6,67,0.00,SCT,,0.00,WeatherDisplay:10.37,2013-08-30 04:45:00,
2013-08-29 21:46:00,71.0,59.1,30.05,ESE,121,4.6,4.6,66,0.00,SCT,,0.00,WeatherDisplay:10.37,2013-08-30 04:46:00,
2013-08-29 21:49:00,70.9,59.0,30.05,SSW,196,0.0,0.0,66,0.00,SCT,,0.00,WeatherDisplay:10.37,2013-08-30 04:49:00,
2013-08-29 21:50:00,70.9,59.0,30.05,SSW,196,0.0,0.0,66,0.00,SCT,,0.00,WeatherDisplay:10.37,2013-08-30 04:50:00,
2013-08-29 21:52:00,70.8,59.3,30.05,SSW,196,0.0,0.0,67,0.00,SCT,,0.00,WeatherDisplay:10.37,2013-08-30 04:52:00,
2013-08-29 21:54:00,70.6,59.1,30.05,SSW,196,1.0,0.0,67,0.00,SCT,,0.00,WeatherDisplay:10.37,2013-08-30 04:54:00,
2013-08-29 21:55:00,70.5,59.0,30.05,SSW,196,1.2,0.0,67,0.00,SCT,,0.00,WeatherDisplay:10.37,2013-08-30 04:55:00,
2013-08-29 21:56:00,70.5,59.0,30.05,SSW,196,1.2,0.0,67,0.00,SCT,,0.00,WeatherDisplay:10.37,2013-08-30 04:56:00,
2013-08-29 21:57:00,70.6,59.1,30.05,SSW,196,0.0,0.0,67,0.00,SCT,,0.00,WeatherDisplay:10.37,2013-08-30 04:57:00,
2013-08-29 22:01:00,70.5,59.0,30.06,SSW,196,0.0,0.0,67,0.00,SCT,,0.00,WeatherDisplay:10.37,2013-08-30 05:01:00,
2013-08-29 22:02:00,70.5,59.0,30.05,SSW,196,0.0,0.0,67,0.00,SCT,,0.00,WeatherDisplay:10.37,2013-08-30 05:02:00,
2013-08-29 22:04:00,70.5,59.0,30.05,SSW,196,0.0,0.0,67,0.00,SCT,,0.00,WeatherDisplay:10.37,2013-08-30 05:04:00,
2013-08-29 22:06:00,70.4,58.9,30.06,SSW,196,0.0,0.0,67,0.00,SCT,,0.00,WeatherDisplay:10.37,2013-08-30 05:06:00,
2013-08-29 22:07:00,70.4,58.9,30.06,SSW,196,0.0,0.0,67,0.00,SCT,,0.00,WeatherDisplay:10.37,2013-08-30 05:07:00,
2013-08-29 22:08:00,70.3,59.2,30.06,SSW,196,0.0,0.0,68,0.00,SCT,,0.00,WeatherDisplay:10.37,2013-08-30 05:08:00,
2013-08-29 22:09:00,70.3,59.2,30.06,SSW,196,0.0,0.0,68,0.00,SCT,,0.00,WeatherDisplay:10.37,2013-08-30 05:09:00,
2013-08-29 22:11:00,70.3,59.2,30.06,SSW,196,0.0,0.0,68,0.00,SCT,,0.00,WeatherDisplay:10.37,2013-08-30 05:11:00,
2013-08-29 22:12:00,70.2,58.7,30.06,SSW,196,0.0,0.0,67,0.00,SCT,,0.00,WeatherDisplay:10.37,2013-08-30 05:12:00,
2013-08-29 22:13:00,70.2,58.7,30.06,SSW,196,0.0,0.0,67,0.00,SCT,,0.00,WeatherDisplay:10.37,2013-08-30 05:13:00,
2013-08-29 22:14:00,70.2,59.1,30.06,SSW,196,0.0,0.0,68,0.00,SCT,,0.00,WeatherDisplay:10.37,2013-08-30 05:14:00,
2013-08-29 22:15:00,70.2,59.1,30.06,SSW,196,1.2,0.0,68,0.00,SCT,,0.00,WeatherDisplay:10.37,2013-08-30 05:15:00,
2013-08-29 22:17:00,70.0,59.0,30.06,SSW,196,1.2,1.2,68,0.00,SCT,,0.00,WeatherDisplay:10.37,2013-08-30 05:17:00,
2013-08-29 22:18:00,70.0,59.0,30.06,SSW,196,1.2,0.0,68,0.00,SCT,,0.00,WeatherDisplay:10.37,2013-08-30 05:18:00,
2013-08-29 22:19:00,70.0,59.0,30.06,SSW,196,1.0,1.0,68,0.00,SCT,,0.00,WeatherDisplay:10.37,2013-08-30 05:19:00,
2013-08-29 22:20:00,70.0,59.0,30.06,SSW,196,1.2,1.2,68,0.00,SCT,,0.00,WeatherDisplay:10.37,2013-08-30 05:20:00,
2013-08-29 22:23:00,69.9,58.9,30.06,SSW,196,0.0,0.0,68,0.00,SCT,,0.00,WeatherDisplay:10.37,2013-08-30 05:23:00,
2013-08-29 22:24:00,69.9,58.9,30.06,SSW,196,0.0,0.0,68,0.00,SCT,,0.00,WeatherDisplay:10.37,2013-08-30 05:24:00,
2013-08-29 22:26:00,69.8,58.8,30.06,SSW,208,1.2,0.0,68,0.00,SCT,,0.00,WeatherDisplay:10.37,2013-08-30 05:26:00,
2013-08-29 22:28:00,69.7,59.1,30.06,SSW,208,0.0,0.0,69,0.00,SCT,,0.00,WeatherDisplay:10.37,2013-08-30 05:28:00,
2013-08-29 22:29:00,69.6,58.6,30.06,SSW,208,0.0,0.0,68,0.00,SCT,,0.00,WeatherDisplay:10.37,2013-08-30 05:29:00,
2013-08-29 22:30:00,69.6,59.0,30.06,SSW,208,1.2,0.0,69,0.00,SCT,,0.00,WeatherDisplay:10.37,2013-08-30 05:30:00,
2013-08-29 22:31:00,69.5,58.9,30.06,SSW,208,1.2,0.0,69,0.00,SCT,,0.00,WeatherDisplay:10.37,2013-08-30 05:31:00,
2013-08-29 22:33:00,69.5,58.9,30.06,SSE,150,4.0,4.0,69,0.00,SCT,,0.00,WeatherDisplay:10.37,2013-08-30 05:33:00,
2013-08-29 22:34:00,69.5,59.3,30.06,SE,135,3.5,3.5,70,0.00,SCT,,0.00,WeatherDisplay:10.37,2013-08-30 05:34:00,
2013-08-29 22:35:00,69.4,58.8,30.06,SSW,201,0.0,4.0,69,0.00,SCT,,0.00,WeatherDisplay:10.37,2013-08-30 05:35:00,
2013-08-29 22:36:00,69.3,59.1,30.06,SE,135,1.2,1.2,70,0.00,SCT,,0.00,WeatherDisplay:10.37,2013-08-30 05:36:00,
2013-08-29 22:38:00,69.3,59.1,30.06,SE,136,0.0,0.0,70,0.00,SCT,,0.00,WeatherDisplay:10.37,2013-08-30 05:38:00,
2013-08-29 22:40:00,69.2,59.0,30.06,SE,146,0.0,0.0,70,0.00,SCT,,0.00,WeatherDisplay:10.37,2013-08-30 05:40:00,
2013-08-29 22:41:00,69.2,59.0,30.06,SE,146,1.2,1.2,70,0.00,SCT,,0.00,WeatherDisplay:10.37,2013-08-30 05:41:00,
2013-08-29 22:45:00,69.1,58.9,30.06,SSW,202,0.0,0.0,70,0.00,SCT,,0.00,WeatherDisplay:10.37,2013-08-30 05:45:00,
2013-08-29 22:46:00,69.1,59.3,30.06,SSW,202,1.0,0.0,71,0.00,SCT,,0.00,WeatherDisplay:10.37,2013-08-30 05:46:00,
2013-08-29 22:47:00,69.1,58.9,30.06,ESE,120,3.0,3.0,70,0.00,SCT,,0.00,WeatherDisplay:10.37,2013-08-30 05:47:00,
2013-08-29 22:48:00,69.0,59.2,30.06,SSW,206,3.5,3.5,71,0.00,SCT,,0.00,WeatherDisplay:10.37,2013-08-30 05:48:00,
2013-08-29 22:49:00,69.0,58.8,30.06,ESE,116,1.2,1.2,70,0.00,SCT,,0.00,WeatherDisplay:10.37,2013-08-30 05:49:00,
2013-08-29 22:51:00,68.9,59.1,30.06,SSE,155,3.5,3.5,71,0.00,SCT,,0.00,WeatherDisplay:10.37,2013-08-30 05:51:00,
2013-08-29 22:55:00,68.9,58.7,30.06,SSE,152,1.0,1.0,70,0.00,SCT,,0.00,WeatherDisplay:10.37,2013-08-30 05:55:00,
2013-08-29 22:56:00,68.8,59.0,30.06,SSW,209,1.2,1.2,71,0.00,SCT,,0.00,WeatherDisplay:10.37,2013-08-30 05:56:00,
2013-08-29 22:57:00,68.8,59.0,30.06,SSW,213,3.5,3.5,71,0.00,SCT,,0.00,WeatherDisplay:10.37,2013-08-30 05:57:00,
2013-08-29 23:00:00,68.7,58.9,30.06,SSW,213,1.2,0.0,71,0.00,SCT,,0.00,WeatherDisplay:10.37,2013-08-30 06:00:00,
2013-08-29 23:01:00,68.6,58.8,30.06,SSW,213,0.0,0.0,71,0.00,SCT,,0.00,WeatherDisplay:10.37,2013-08-30 06:01:00,
2013-08-29 23:02:00,68.6,58.8,30.06,SSW,213,2.0,2.0,71,0.00,SCT,,0.00,WeatherDisplay:10.37,2013-08-30 06:02:00,
2013-08-29 23:05:00,68.5,58.7,30.06,WSW,241,1.0,0.0,71,0.00,SCT,,0.00,WeatherDisplay:10.37,2013-08-30 06:05:00,
2013-08-29 23:06:00,68.4,58.6,30.06,SE,126,1.2,1.2,71,0.00,SCT,,0.00,WeatherDisplay:10.37,2013-08-30 06:06:00,
2013-08-29 23:07:00,68.4,58.6,30.06,SE,133,0.0,0.1,71,0.00,SCT,,0.00,WeatherDisplay:10.37,2013-08-30 06:07:00,
2013-08-29 23:08:00,68.4,59.0,30.06,SE,136,0.0,0.1,72,0.00,SCT,,0.00,WeatherDisplay:10.37,2013-08-30 06:08:00,
2013-08-29 23:10:00,68.4,58.6,30.06,SE,136,1.2,0.0,71,0.00,SCT,,0.00,WeatherDisplay:10.37,2013-08-30 06:10:00,
2013-08-29 23:12:00,68.3,58.9,30.06,SW,230,0.0,0.0,72,0.00,SCT,,0.00,WeatherDisplay:10.37,2013-08-30 06:12:00,
2013-08-29 23:13:00,68.3,58.9,30.06,SSE,166,1.2,1.2,72,0.00,SCT,,0.00,WeatherDisplay:10.37,2013-08-30 06:13:00,
2013-08-29 23:14:00,68.3,58.9,30.06,SE,137,2.0,2.0,72,0.00,SCT,,0.00,WeatherDisplay:10.37,2013-08-30 06:14:00,
2013-08-29 23:15:00,68.3,58.9,30.06,SE,142,0.0,2.0,72,0.00,SCT,,0.00,WeatherDisplay:10.37,2013-08-30 06:15:00,
2013-08-29 23:17:00,68.3,58.9,30.06,ESE,115,3.5,3.5,72,0.00,SCT,,0.00,WeatherDisplay:10.37,2013-08-30 06:17:00,
2013-08-29 23:19:00,68.3,58.9,30.06,SSE,155,0.0,0.0,72,0.00,SCT,,0.00,WeatherDisplay:10.37,2013-08-30 06:19:00,
2013-08-29 23:20:00,68.3,58.9,30.06,SSE,163,0.0,4.0,72,0.00,SCT,,0.00,WeatherDisplay:10.37,2013-08-30 06:20:00,
2013-08-29 23:22:00,68.1,59.1,30.06,SE,139,0.0,0.0,73,0.00,SCT,,0.00,WeatherDisplay:10.37,2013-08-30 06:22:00,
2013-08-29 23:23:00,68.1,59.1,30.06,SE,130,2.3,2.3,73,0.00,SCT,,0.00,WeatherDisplay:10.37,2013-08-30 06:23:00,
2013-08-29 23:24:00,68.1,59.1,30.06,SSW,202,2.3,2.3,73,0.00,SCT,,0.00,WeatherDisplay:10.37,2013-08-30 06:24:00,
2013-08-29 23:25:00,68.1,59.1,30.06,SSW,202,2.3,2.3,73,0.00,SCT,,0.00,WeatherDisplay:10.37,2013-08-30 06:25:00,
2013-08-29 23:27:00,68.1,59.1,30.06,SSW,193,2.3,2.3,73,0.00,SCT,,0.00,WeatherDisplay:10.37,2013-08-30 06:27:00,
2013-08-29 23:28:00,68.1,59.1,30.06,SE,130,3.0,3.0,73,0.00,SCT,,0.00,WeatherDisplay:10.37,2013-08-30 06:28:00,
2013-08-29 23:30:00,68.1,59.1,30.06,SE,136,4.6,4.6,73,0.00,SCT,,0.00,WeatherDisplay:10.37,2013-08-30 06:30:00,
2013-08-29 23:31:00,68.0,59.0,30.06,SE,138,2.3,2.3,73,0.00,SCT,,0.00,WeatherDisplay:10.37,2013-08-30 06:31:00,
2013-08-29 23:32:00,68.0,59.0,30.06,SE,138,2.3,0.0,73,0.00,SCT,,0.00,WeatherDisplay:10.37,2013-08-30 06:32:00,
2013-08-29 23:34:00,68.0,59.4,30.06,NE,56,2.3,2.3,74,0.00,SCT,,0.00,WeatherDisplay:10.37,2013-08-30 06:34:00,
2013-08-29 23:35:00,68.0,59.4,30.06,ESE,116,1.0,5.0,74,0.00,SCT,,0.00,WeatherDisplay:10.37,2013-08-30 06:35:00,
2013-08-29 23:37:00,67.9,59.3,30.06,ESE,112,5.0,5.0,74,0.00,SCT,,0.00,WeatherDisplay:10.37,2013-08-30 06:37:00,
2013-08-29 23:38:00,67.9,59.3,30.06,South,175,3.5,3.5,74,0.00,SCT,,0.00,WeatherDisplay:10.37,2013-08-30 06:38:00,
2013-08-29 23:39:00,67.9,59.3,30.07,South,175,2.3,0.0,74,0.00,SCT,,0.00,WeatherDisplay:10.37,2013-08-30 06:39:00,
2013-08-29 23:41:00,67.9,59.3,30.07,ESE,109,2.3,2.3,74,0.00,SCT,,0.00,WeatherDisplay:10.37,2013-08-30 06:41:00,
2013-08-29 23:43:00,67.8,59.2,30.07,South,188,2.3,2.3,74,0.00,SCT,,0.00,WeatherDisplay:10.37,2013-08-30 06:43:00,
2013-08-29 23:44:00,67.7,59.5,30.06,ESE,115,4.6,4.6,75,0.00,SCT,,0.00,WeatherDisplay:10.37,2013-08-30 06:44:00,
2013-08-29 23:45:00,67.7,59.5,30.06,ESE,103,4.6,4.6,75,0.00,SCT,,0.00,WeatherDisplay:10.37,2013-08-30 06:45:00,
2013-08-29 23:47:00,67.7,59.5,30.07,NE,45,2.3,2.3,75,0.00,SCT,,0.00,WeatherDisplay:10.37,2013-08-30 06:47:00,
2013-08-29 23:50:00,67.5,59.7,30.07,WSW,249,1.2,0.0,76,0.00,SCT,,0.00,WeatherDisplay:10.37,2013-08-30 06:50:00,
2013-08-29 23:51:00,67.4,59.2,30.06,WSW,249,0.0,0.0,75,0.00,SCT,,0.00,WeatherDisplay:10.37,2013-08-30 06:51:00,
2013-08-29 23:53:00,67.4,59.6,30.06,WSW,249,0.0,0.0,76,0.00,SCT,,0.00,WeatherDisplay:10.37,2013-08-30 06:53:00,
2013-08-29 23:55:00,67.3,59.5,30.06,ESE,110,3.5,3.5,76,0.00,SCT,,0.00,WeatherDisplay:10.37,2013-08-30 06:55:00,
2013-08-29 23:57:00,67.3,59.5,30.06,SE,127,3.5,3.5,76,0.00,SCT,,0.00,WeatherDisplay:10.37,2013-08-30 06:57:00,
2013-08-29 23:58:00,67.4,59.6,30.06,WSW,258,3.5,3.5,76,0.00,SCT,,0.00,WeatherDisplay:10.37,2013-08-30 06:58:00,
2013-08-29 23:59:00,67.3,59.5,30.06,SSE,150,1.0,1.0,76,0.00,SCT,,0.00,WeatherDisplay:10.37,2013-08-30 06:59:00,